K5BWX-2 Weather Reports


Display with metric or nautical units.
time (UTC)temp
F
wind
direction
speed
MPH
gust
MPH
rain 1hr
in
rain 24hr
in
rain mn
in
humidity
%
barometer
mb
20260506235302 51 46 3.0 11.0 0.01 0.43 0.43 94 1015.0
20260506235201 51 56 3.0 10.0 0.01 0.43 0.43 94 1015.0
20260506235131 51 69 3.0 10.0 0.01 0.43 0.43 94 1015.0
20260506235121 51 61 3.0 10.0 0.01 0.43 0.43 94 1015.0
20260506234855 51 69 3.0 10.0 0.01 0.43 0.43 94 1015.0
20260506234826 51 9 3.0 12.0 0.01 0.43 0.43 94 1014.8
20260506234817 51 60 3.0 10.0 0.01 0.43 0.43 94 1014.8
20260506234555 51 20 3.0 12.0 0.01 0.43 0.43 94 1014.8
20260506234449 51 32 4.0 12.0 0.02 0.43 0.43 94 1015.0
20260506234349 51 63 4.0 12.0 0.02 0.43 0.43 94 1014.8
20260506234250 51 26 4.0 12.0 0.02 0.43 0.43 94 1014.8
20260506234224 51 65 4.0 12.0 0.02 0.43 0.43 94 1015.1
20260506234212 51 59 4.0 12.0 0.02 0.43 0.43 94 1014.8
20260506234018 51 5 4.0 12.0 0.02 0.43 0.43 94 1015.1
20260506234005 51 53 4.0 12.0 0.02 0.43 0.43 94 1015.1
20260506233746 51 28 4.0 10.0 0.01 0.42 0.43 94 1015.1
20260506233643 51 47 4.0 10.0 0.01 0.42 0.42 94 1015.0
20260506233543 51 15 4.0 10.0 0.01 0.42 0.42 94 1015.0
20260506233433 51 69 4.0 10.0 0.01 0.42 0.42 94 1014.7
20260506233333 51 62 4.0 10.0 0.01 0.42 0.42 94 1014.8
20260506233311 51 44 5.0 13.0 0.01 0.42 0.42 94 1015.4
20260506233259 51 76 4.0 13.0 0.01 0.42 0.42 94 1015.2
20260506233034 51 324 5.0 13.0 0.01 0.42 0.42 94 1015.5
20260506232934 51 351 5.0 13.0 0.01 0.42 0.42 94 1015.6
20260506232831 51 55 5.0 13.0 0.01 0.42 0.42 94 1015.6
20260506232729 51 24 5.0 13.0 0.01 0.42 0.42 94 1015.8
20260506232630 51 56 6.0 13.0 0.01 0.42 0.42 94 1015.9
20260506232603 51 348 6.0 15.0 0.02 0.42 0.42 94 1016.1
20260506232549 51 355 6.0 13.0 0.02 0.42 0.42 94 1016.1
20260506232322 51 30 6.0 16.0 0.02 0.42 0.42 94 1016.1
20260506232222 51 5 6.0 16.0 0.02 0.42 0.42 94 1016.1
20260506232123 51 38 6.0 16.0 0.02 0.42 0.42 94 1016.1
20260506232022 51 13 6.0 16.0 0.03 0.42 0.42 94 1015.9
20260506231912 51 321 6.0 16.0 0.03 0.42 0.42 94 1015.8
20260506231811 51 11 7.0 16.0 0.03 0.42 0.42 94 1015.7
20260506231712 51 355 7.0 16.0 0.03 0.42 0.42 94 1015.5
20260506231612 51 11 7.0 16.0 0.04 0.42 0.42 94 1015.4
20260506231511 51 25 8.0 16.0 0.04 0.42 0.42 94 1015.3
20260506231412 51 5 8.0 16.0 0.04 0.42 0.42 94 1015.0
20260506231310 51 35 8.0 17.0 0.04 0.42 0.42 94 1014.6
20260506231209 51 20 8.0 17.0 0.04 0.42 0.42 94 1014.2
20260506231109 51 348 8.0 17.0 0.04 0.42 0.42 94 1013.9
20260506231009 51 42 8.0 17.0 0.04 0.42 0.42 94 1013.8
20260506230910 51 63 8.0 17.0 0.04 0.42 0.42 94 1013.9
20260506230810 51 26 8.0 17.0 0.04 0.42 0.42 94 1014.1
20260506230709 51 35 8.0 17.0 0.05 0.42 0.42 94 1014.3
20260506230610 51 55 8.0 17.0 0.05 0.42 0.42 94 1014.6
20260506230509 51 0 7.0 17.0 0.05 0.42 0.42 94 1014.6
20260506230412 51 20 7.0 17.0 0.05 0.42 0.42 94 1014.7
20260506230320 51 16 7.0 15.0 0.05 0.42 0.42 94 1014.8
20260506230211 51 26 7.0 15.0 0.05 0.42 0.42 94 1014.7
20260506230147 51 15 7.0 15.0 0.05 0.42 0.42 94 1014.6
20260506230134 51 15 6.0 15.0 0.05 0.42 0.42 94 1014.6
20260506225910 51 355 7.0 15.0 0.05 0.42 0.42 94 1014.6
20260506225806 51 44 7.0 15.0 0.06 0.42 0.42 94 1014.4
20260506225708 51 42 7.0 16.0 0.06 0.42 0.42 94 1014.3
20260506225607 51 17 7.0 16.0 0.06 0.42 0.42 94 1014.2
20260506225539 51 25 7.0 16.0 0.06 0.42 0.42 94 1014.3
20260506225527 51 47 7.0 16.0 0.06 0.42 0.42 94 1014.3
20260506225308 51 5 7.0 16.0 0.06 0.42 0.42 94 1014.4
20260506225207 51 5 7.0 16.0 0.06 0.42 0.42 94 1014.5
20260506225107 51 22 7.0 16.0 0.06 0.42 0.42 94 1014.5
20260506225007 51 67 7.0 16.0 0.06 0.42 0.42 94 1014.4
20260506224908 51 14 7.0 16.0 0.06 0.42 0.42 94 1014.4
20260506224809 51 19 7.0 16.0 0.06 0.42 0.42 94 1014.3
20260506224707 51 22 7.0 14.0 0.06 0.42 0.42 94 1014.2
20260506224608 51 34 7.0 14.0 0.06 0.42 0.42 94 1014.1
20260506224539 51 37 6.0 14.0 0.05 0.41 0.41 94 1013.7
20260506224529 51 355 7.0 14.0 0.05 0.41 0.41 94 1013.8
20260506224307 51 0 5.0 14.0 0.05 0.41 0.41 94 1013.7
20260506224206 51 21 5.0 14.0 0.05 0.41 0.41 94 1013.7
20260506224106 51 22 4.0 14.0 0.05 0.41 0.41 94 1013.8
20260506224005 51 40 4.0 14.0 0.05 0.41 0.41 94 1013.8
20260506223906 51 19 3.0 14.0 0.05 0.41 0.41 94 1013.8
20260506223836 51 44 2.0 11.0 0.05 0.41 0.41 94 1014.0
20260506223824 51 5 3.0 12.0 0.05 0.41 0.41 94 1014.0
20260506223603 51 26 2.0 9.0 0.05 0.41 0.41 94 1014.1
20260506223503 51 5 2.0 9.0 0.05 0.41 0.41 94 1014.2
20260506223428 51 242 3.0 9.0 0.05 0.41 0.41 94 1014.5
20260506223417 51 244 3.0 9.0 0.05 0.41 0.41 94 1014.3
20260506223154 51 244 3.0 10.0 0.05 0.41 0.41 94 1014.6
20260506223057 51 228 3.0 10.0 0.05 0.41 0.41 94 1014.6
20260506222955 51 237 4.0 10.0 0.05 0.41 0.41 94 1014.6
20260506222855 51 332 4.0 10.0 0.05 0.41 0.41 94 1014.5
20260506222752 51 36 5.0 10.0 0.05 0.41 0.41 94 1014.5
20260506222652 51 29 5.0 10.0 0.05 0.41 0.41 94 1014.5
20260506222615 51 37 5.0 10.0 0.04 0.40 0.40 94 1014.4
20260506222610 51 50 5.0 10.0 0.04 0.40 0.40 94 1014.3
20260506222557 51 28 5.0 10.0 0.04 0.40 0.40 94 1014.5
20260506222534 51 27 5.0 10.0 0.04 0.40 0.40 94 1014.5
20260506222151 51 30 4.0 10.0 0.04 0.40 0.40 94 1014.4
20260506222051 51 32 5.0 10.0 0.03 0.39 0.40 94 1014.5
20260506221952 51 20 5.0 10.0 0.03 0.39 0.39 94 1014.8
20260506221936 51 350 5.0 14.0 0.02 0.38 0.38 94 1015.3
20260506221932 51 9 4.0 11.0 0.03 0.39 0.39 94 1015.0
20260506221918 51 20 4.0 10.0 0.03 0.39 0.39 94 1015.0
20260506221732 51 14 5.0 11.0 0.03 0.39 0.39 94 1015.1
20260506221608 51 0 5.0 14.0 0.02 0.38 0.39 94 1015.2
20260506221347 51 9 6.0 14.0 0.02 0.38 0.38 94 1015.3
20260506221320 51 36 6.0 14.0 0.02 0.38 0.38 94 1015.5
20260506221308 51 26 6.0 14.0 0.02 0.38 0.38 94 1015.4
20260506221042 51 41 7.0 14.0 0.02 0.38 0.38 94 1015.6
20260506221016 51 18 7.0 14.0 0.02 0.38 0.38 94 1015.6
20260506221003 51 0 7.0 14.0 0.02 0.38 0.38 94 1015.6
20260506220741 51 27 7.0 14.0 0.01 0.37 0.38 94 1015.4
20260506220639 51 328 7.0 14.0 0.01 0.37 0.37 94 1015.5
20260506220535 51 65 7.0 14.0 0.02 0.37 0.37 94 1015.4
20260506220435 51 5 7.0 14.0 0.02 0.37 0.37 94 1015.3
20260506220333 51 5 7.0 14.0 0.02 0.37 0.37 94 1015.2
20260506220231 51 13 7.0 14.0 0.02 0.37 0.37 94 1015.1
20260506220131 51 0 7.0 14.0 0.02 0.37 0.37 94 1015.1
20260506220031 51 355 6.0 14.0 0.02 0.37 0.37 94 1015.0
20260506220002 51 355 6.0 13.0 0.02 0.37 0.37 94 1014.8
20260506215953 51 39 6.0 13.0 0.02 0.37 0.37 94 1015.0
20260506215731 51 30 6.0 13.0 0.01 0.36 0.36 94 1014.8
20260506215631 51 5 6.0 13.0 0.01 0.36 0.36 94 1014.8
20260506215532 51 30 5.0 13.0 0.01 0.36 0.36 94 1015.0
20260506215431 51 0 5.0 13.0 0.01 0.36 0.36 94 1014.8
20260506215331 51 0 5.0 13.0 0.01 0.36 0.36 94 1014.7
20260506215232 51 347 5.0 13.0 0.01 0.36 0.36 94 1014.7
20260506215132 52 36 5.0 13.0 0.01 0.36 0.36 94 1014.6
20260506215105 51 355 5.0 13.0 0.01 0.36 0.36 94 1014.3
20260506215053 51 44 5.0 13.0 0.01 0.36 0.36 94 1014.4
20260506214819 51 355 5.0 13.0 0.01 0.36 0.36 94 1014.3
20260506214752 51 335 5.0 12.0 0.01 0.36 0.36 94 1014.3
20260506214740 51 37 5.0 13.0 0.01 0.36 0.36 94 1014.3
20260506214516 52 32 5.0 12.0 0.01 0.36 0.36 94 1014.2
20260506214443 52 0 5.0 12.0 0.01 0.36 0.36 94 1014.0
20260506214434 52 5 5.0 12.0 0.01 0.36 0.36 94 1014.1
20260506214211 51 342 5.0 12.0 0.01 0.36 0.36 94 1014.1
20260506214113 51 19 5.0 12.0 0.01 0.36 0.36 94 1014.2
20260506214011 51 51 6.0 12.0 0.01 0.36 0.36 94 1014.3
20260506213937 51 13 6.0 12.0 0.01 0.36 0.36 94 1014.5
20260506213928 51 350 6.0 12.0 0.01 0.36 0.36 94 1014.4
20260506213749 52 348 6.0 12.0 0.01 0.36 0.36 94 1014.5
20260506213736 52 351 6.0 12.0 0.01 0.36 0.36 94 1014.4
20260506213513 52 28 5.0 12.0 0.01 0.36 0.36 94 1014.5
20260506213407 52 327 5.0 11.0 0.01 0.36 0.36 94 1014.5
20260506213258 52 0 5.0 11.0 0.01 0.36 0.36 94 1014.5
20260506213157 52 333 5.0 11.0 0.01 0.36 0.36 94 1014.5
20260506213120 52 334 4.0 10.0 0.01 0.36 0.36 94 1014.4
20260506213104 52 0 5.0 11.0 0.01 0.36 0.36 94 1014.6
20260506213042 52 351 5.0 11.0 0.01 0.36 0.36 94 1014.5
20260506212757 52 0 4.0 10.0 0.01 0.36 0.36 94 1014.6
20260506212657 52 355 3.0 10.0 0.01 0.36 0.36 94 1014.5
20260506212600 52 337 3.0 10.0 0.01 0.36 0.36 94 1014.5
20260506212457 52 294 3.0 10.0 0.01 0.36 0.36 94 1014.5
20260506212438 53 333 3.0 10.0 0.01 0.36 0.36 94 1014.2
20260506212433 53 0 3.0 10.0 0.01 0.36 0.36 94 1014.2
20260506212427 53 5 3.0 8.0 0.01 0.36 0.36 94 1014.1
20260506212414 53 331 3.0 10.0 0.01 0.36 0.36 94 1014.3
20260506212359 53 355 3.0 10.0 0.01 0.36 0.36 94 1014.3
20260506211857 53 59 3.0 8.0 0.01 0.36 0.36 94 1014.1
20260506211759 53 59 3.0 8.0 0.01 0.36 0.36 94 1014.0
20260506211658 53 11 2.0 8.0 0.01 0.36 0.36 94 1013.9
20260506211557 53 46 2.0 7.0 0.01 0.36 0.36 94 1013.8
20260506211500 53 11 3.0 7.0 0.01 0.36 0.36 94 1013.7
20260506211425 53 17 2.0 8.0 0.01 0.36 0.36 94 1013.8
20260506211414 53 355 2.0 8.0 0.01 0.36 0.36 94 1013.7
20260506211153 53 51 2.0 8.0 0.01 0.36 0.36 94 1013.9
20260506211140 53 13 3.0 9.0 0.01 0.36 0.36 94 1014.0
20260506211135 53 355 4.0 11.0 0.01 0.36 0.36 94 1014.0
20260506211131 53 28 4.0 13.0 0.01 0.36 0.36 94 1013.9
20260506211115 53 19 3.0 8.0 0.01 0.36 0.36 94 1014.0
20260506211057 53 5 3.0 9.0 0.01 0.36 0.36 94 1014.0
20260506210555 53 38 5.0 13.0 0.00 0.35 0.35 94 1013.7
20260506210452 53 65 5.0 13.0 0.00 0.35 0.35 94 1013.6
20260506210352 53 24 5.0 13.0 0.00 0.35 0.35 94 1013.4
20260506210254 53 338 5.0 13.0 0.00 0.35 0.35 94 1013.4
20260506210153 53 48 5.0 13.0 0.00 0.35 0.35 94 1013.5
20260506210054 52 21 5.0 13.0 0.00 0.35 0.35 94 1013.6
20260506205952 52 26 5.0 13.0 0.00 0.35 0.35 94 1013.9
20260506205928 52 5 4.0 13.0 0.00 0.35 0.35 94 1014.2
20260506205915 52 19 4.0 13.0 0.00 0.35 0.35 94 1014.1
20260506205704 52 17 4.0 11.0 0.00 0.35 0.35 94 1014.3
20260506205553 52 0 4.0 11.0 0.00 0.35 0.35 94 1014.4
20260506205526 52 13 3.0 11.0 0.00 0.35 0.35 94 1014.6
20260506205513 52 319 3.0 11.0 0.00 0.35 0.35 94 1014.5
20260506205253 52 343 4.0 11.0 0.00 0.35 0.35 94 1014.6
20260506205153 52 329 4.0 11.0 0.00 0.35 0.35 94 1014.6
20260506205053 52 334 4.0 11.0 0.00 0.35 0.35 94 1014.5
20260506204953 53 255 4.0 11.0 0.00 0.35 0.35 94 1014.4
20260506204937 53 27 4.0 11.0 0.00 0.35 0.35 94 1014.5
20260506204922 53 329 4.0 11.0 0.00 0.35 0.35 94 1014.4
20260506204648 53 334 4.0 10.0 0.00 0.35 0.35 94 1014.4
20260506204545 53 328 3.0 10.0 0.00 0.35 0.35 94 1014.5
20260506204446 53 289 3.0 10.0 0.00 0.35 0.35 94 1014.5
20260506204350 53 296 3.0 10.0 0.00 0.35 0.35 94 1014.4
20260506204245 53 308 3.0 8.0 0.00 0.35 0.35 94 1014.3
20260506204140 53 302 2.0 8.0 0.00 0.35 0.35 94 1014.4
20260506204038 54 344 2.0 8.0 0.00 0.35 0.35 94 1014.4
20260506203939 54 336 2.0 6.0 0.00 0.35 0.35 94 1014.4
20260506203839 54 311 1.0 6.0 0.00 0.35 0.35 94 1014.5
20260506203742 54 297 1.0 5.0 0.00 0.35 0.35 94 1014.4
20260506203634 54 316 1.0 5.0 0.00 0.35 0.35 94 1014.3
20260506203534 55 311 1.0 5.0 0.00 0.35 0.35 94 1014.2
20260506203435 55 309 1.0 5.0 0.00 0.35 0.35 94 1014.1
20260506203333 55 327 1.0 5.0 0.00 0.35 0.35 94 1014.0
20260506203233 55 251 1.0 7.0 0.00 0.35 0.35 94 1014.0
20260506203133 55 250 2.0 7.0 0.00 0.35 0.35 94 1013.9
20260506203033 55 250 2.0 7.0 0.00 0.35 0.35 94 1014.0
20260506202930 54 250 2.0 7.0 0.00 0.35 0.35 94 1013.9
20260506202829 54 250 2.0 7.0 0.00 0.35 0.35 94 1014.1
20260506202729 54 267 3.0 7.0 0.00 0.35 0.35 94 1014.1
20260506202628 54 267 3.0 7.0 0.00 0.35 0.35 94 1014.1
20260506202602 54 294 3.0 7.0 0.00 0.35 0.35 94 1014.3
20260506202549 54 309 3.0 7.0 0.00 0.35 0.35 94 1014.2
20260506202323 54 300 2.0 7.0 0.00 0.35 0.35 94 1014.3
20260506202251 54 311 3.0 7.0 0.00 0.35 0.35 94 1014.4
20260506202242 54 315 3.0 7.0 0.00 0.35 0.35 94 1014.3
20260506202022 54 315 3.0 6.0 0.00 0.35 0.35 94 1014.4
20260506201922 54 334 3.0 6.0 0.00 0.35 0.35 94 1014.4
20260506201822 54 12 3.0 6.0 0.00 0.35 0.35 94 1014.4
20260506201721 54 302 2.0 6.0 0.00 0.35 0.35 94 1014.4
20260506201620 54 338 2.0 6.0 0.00 0.35 0.35 94 1014.3
20260506201522 55 19 2.0 6.0 0.00 0.35 0.35 94 1014.3
20260506201423 55 341 2.0 6.0 0.00 0.35 0.35 94 1014.3
20260506201351 55 334 2.0 6.0 0.00 0.35 0.35 94 1014.3
20260506201342 55 334 2.0 6.0 0.00 0.35 0.35 94 1014.3
20260506201156 55 317 2.0 5.0 0.00 0.35 0.35 94 1014.1
20260506201143 55 285 2.0 5.0 0.00 0.35 0.35 94 1014.3
20260506200919 55 323 2.0 5.0 0.00 0.35 0.35 94 1014.0
20260506200819 55 0 2.0 5.0 0.00 0.35 0.35 94 1013.8
20260506200719 55 5 2.0 5.0 0.00 0.35 0.35 94 1013.8
20260506200652 55 11 2.0 5.0 0.00 0.35 0.35 94 1013.7
20260506200640 55 11 2.0 5.0 0.00 0.35 0.35 94 1013.8
20260506200418 55 5 2.0 5.0 0.00 0.35 0.35 94 1013.7
20260506200315 55 349 2.0 5.0 0.00 0.35 0.35 94 1013.8
20260506200215 55 349 2.0 5.0 0.00 0.35 0.35 94 1013.7
20260506200115 55 26 2.0 7.0 0.00 0.35 0.35 94 1013.6
20260506200016 55 36 3.0 9.0 0.00 0.35 0.35 94 1013.6
20260506195915 55 36 3.0 9.0 0.00 0.35 0.35 94 1013.6
20260506195814 55 355 3.0 9.0 0.00 0.35 0.35 94 1013.7
20260506195716 55 349 3.0 9.0 0.00 0.35 0.35 94 1013.9
20260506195615 55 329 4.0 9.0 0.00 0.35 0.35 94 1013.9
20260506195515 55 279 4.0 9.0 0.00 0.35 0.35 94 1013.9
20260506195416 55 248 4.0 9.0 0.00 0.35 0.35 94 1013.9
20260506195317 55 246 5.0 9.0 0.00 0.35 0.35 94 1013.9
20260506195309 55 300 5.0 10.0 0.00 0.35 0.35 94 1014.0
20260506195306 55 292 5.0 10.0 0.00 0.35 0.35 94 1014.1
20260506195251 55 311 5.0 10.0 0.00 0.35 0.35 94 1014.1
20260506195234 55 337 5.0 10.0 0.00 0.35 0.35 94 1014.1
20260506194958 56 298 5.0 10.0 0.00 0.35 0.35 94 1014.0
20260506194954 56 314 4.0 10.0 0.00 0.35 0.35 94 1014.1
20260506194948 56 325 4.0 10.0 0.00 0.35 0.35 94 1014.2
20260506194934 55 169 5.0 10.0 0.00 0.35 0.35 94 1013.9
20260506194907 55 28 5.0 10.0 0.00 0.35 0.35 94 1014.0
20260506194838 55 289 5.0 10.0 0.00 0.35 0.35 94 1014.0
20260506194212 56 340 4.0 10.0 0.00 0.35 0.35 94 1014.2
20260506194135 56 340 4.0 10.0 0.00 0.35 0.35 94 1014.3
20260506194126 56 332 4.0 10.0 0.00 0.35 0.35 94 1014.3
20260506193903 56 284 4.0 10.0 0.00 0.35 0.35 94 1014.3
20260506193805 56 290 4.0 10.0 0.00 0.35 0.35 94 1014.3
20260506193703 56 330 4.0 10.0 0.00 0.35 0.35 94 1014.4
20260506193605 56 329 4.0 10.0 0.00 0.35 0.35 94 1014.5
20260506193501 56 232 4.0 10.0 0.00 0.35 0.35 94 1014.5
20260506193357 56 317 4.0 10.0 0.00 0.35 0.35 94 1014.5
20260506193300 56 247 4.0 9.0 0.00 0.35 0.35 94 1014.4
20260506193157 56 298 4.0 11.0 0.00 0.35 0.35 94 1014.3
20260506193058 56 307 4.0 11.0 0.00 0.35 0.35 94 1014.4
20260506192947 57 325 4.0 11.0 0.00 0.35 0.35 94 1014.4
20260506192847 57 324 4.0 11.0 0.00 0.35 0.35 94 1014.4
20260506192830 57 317 4.0 11.0 0.00 0.35 0.35 94 1014.3
20260506192815 57 305 4.0 11.0 0.00 0.35 0.35 94 1014.4
20260506192543 57 324 4.0 11.0 0.00 0.35 0.35 94 1014.4
20260506192438 57 271 4.0 11.0 0.00 0.35 0.35 94 1014.4
20260506192337 57 238 4.0 11.0 0.00 0.35 0.35 94 1014.4
20260506192238 57 274 4.0 11.0 0.00 0.35 0.35 94 1014.4
20260506192210 57 315 3.0 8.0 0.00 0.35 0.35 94 1014.4
20260506192159 57 261 3.0 11.0 0.00 0.35 0.35 94 1014.5
20260506191935 58 244 3.0 7.0 0.00 0.35 0.35 94 1014.3
20260506191832 58 331 3.0 7.0 0.00 0.35 0.35 94 1014.1
20260506191732 59 336 3.0 7.0 0.00 0.35 0.35 94 1014.2
20260506191632 59 344 3.0 7.0 0.00 0.35 0.35 94 1014.3
20260506191532 60 11 3.0 9.0 0.00 0.35 0.35 94 1014.4
20260506191427 60 298 3.0 9.0 0.00 0.35 0.35 94 1014.4
20260506191326 60 307 3.0 10.0 0.00 0.35 0.35 94 1014.4
20260506191225 60 301 3.0 10.0 0.00 0.35 0.35 94 1013.9
20260506191124 59 329 3.0 10.0 0.00 0.35 0.35 94 1013.7
20260506191046 59 207 4.0 10.0 0.00 0.35 0.35 94 1014.4
20260506191038 59 232 4.0 10.0 0.00 0.35 0.35 94 1014.0
20260506190816 59 225 4.0 10.0 0.00 0.35 0.35 94 1014.7
20260506190715 59 243 4.0 10.0 0.00 0.35 0.35 94 1014.8
20260506190648 59 280 4.0 10.0 0.00 0.35 0.35 94 1014.7
20260506190638 59 242 4.0 10.0 0.00 0.35 0.35 94 1014.7
20260506190410 59 222 4.0 10.0 0.00 0.35 0.35 94 1014.8
20260506190310 59 249 4.0 11.0 0.00 0.35 0.35 94 1015.0
20260506190207 59 220 4.0 11.0 0.00 0.35 0.35 94 1015.1
20260506190107 59 310 4.0 11.0 0.00 0.35 0.35 94 1014.8
20260506190008 59 323 4.0 11.0 0.00 0.35 0.35 94 1014.7
20260506185951 59 320 5.0 15.0 0.00 0.35 0.35 94 1014.8
20260506185946 59 319 5.0 15.0 0.00 0.35 0.35 94 1015.0
20260506185929 59 218 4.0 15.0 0.00 0.35 0.35 94 1014.7
20260506185907 59 224 5.0 15.0 0.00 0.35 0.35 94 1014.7
20260506185454 59 222 5.0 15.0 0.00 0.35 0.35 94 1015.1
20260506185354 59 261 5.0 15.0 0.00 0.35 0.35 94 1015.1
20260506185255 59 304 4.0 15.0 0.00 0.35 0.35 94 1015.1
20260506185154 59 238 4.0 15.0 0.00 0.35 0.35 94 1015.1
20260506185054 59 208 4.0 15.0 0.00 0.35 0.35 94 1014.8
20260506185028 59 198 3.0 12.0 0.00 0.35 0.35 94 1014.7
20260506185016 59 246 4.0 15.0 0.00 0.35 0.35 94 1014.7
20260506184754 59 244 3.0 12.0 0.00 0.35 0.35 94 1014.7
20260506184655 59 225 3.0 11.0 0.00 0.35 0.35 94 1014.7
20260506184555 59 211 3.0 11.0 0.00 0.35 0.35 94 1014.7
20260506184509 59 199 3.0 11.0 0.00 0.35 0.35 94 1014.6
20260506184454 59 225 3.0 11.0 0.00 0.35 0.35 94 1014.7
20260506184440 59 237 3.0 11.0 0.00 0.35 0.35 94 1014.6
20260506184155 59 191 4.0 11.0 0.00 0.35 0.35 94 1014.6
20260506184054 59 244 4.0 11.0 0.00 0.35 0.35 94 1014.7
20260506183954 59 259 4.0 11.0 0.00 0.35 0.35 94 1014.6
20260506183856 59 227 4.0 11.0 0.00 0.35 0.35 94 1014.6
20260506183754 59 239 4.0 11.0 0.00 0.35 0.35 94 1014.7
20260506183739 59 207 4.0 9.0 0.00 0.35 0.35 94 1014.6
20260506183734 59 235 4.0 9.0 0.00 0.35 0.35 94 1014.7
20260506183730 59 229 4.0 9.0 0.00 0.35 0.35 94 1014.7
20260506183718 59 294 4.0 9.0 0.00 0.35 0.35 94 1014.6
20260506183535 59 207 4.0 9.0 0.00 0.35 0.35 94 1014.6
20260506183218 59 229 4.0 8.0 0.00 0.35 0.35 94 1014.7
20260506183212 59 217 4.0 8.0 0.00 0.35 0.35 94 1014.6
20260506183201 59 220 4.0 8.0 0.00 0.35 0.35 94 1014.6
20260506183138 59 261 4.0 8.0 0.00 0.35 0.35 94 1014.6
20260506182755 59 230 3.0 8.0 0.00 0.35 0.35 94 1014.6
20260506182654 59 193 3.0 8.0 0.00 0.35 0.35 94 1014.5
20260506182557 59 209 3.0 8.0 0.00 0.35 0.35 94 1014.6
20260506182455 59 215 3.0 8.0 0.00 0.35 0.35 94 1014.6
20260506182356 59 199 3.0 8.0 0.00 0.35 0.35 94 1014.5
20260506182325 59 227 3.0 8.0 0.00 0.35 0.35 94 1014.6
20260506182312 59 224 3.0 8.0 0.00 0.35 0.35 94 1014.6
20260506182049 59 203 3.0 8.0 0.00 0.35 0.35 94 1014.6
20260506181949 59 209 3.0 8.0 0.00 0.35 0.35 94 1014.6
20260506181849 59 219 3.0 8.0 0.00 0.35 0.35 94 1014.6
20260506181746 59 205 3.0 8.0 0.00 0.35 0.35 94 1014.6
20260506181647 59 202 3.0 10.0 0.00 0.35 0.35 94 1014.6
20260506181604 60 219 3.0 10.0 0.00 0.35 0.35 94 1014.6
20260506181552 59 225 4.0 10.0 0.00 0.35 0.35 94 1014.5
20260506181531 59 177 4.0 10.0 0.00 0.35 0.35 94 1014.5
20260506181404 59 234 4.0 10.0 0.00 0.35 0.35 94 1014.6
20260506181144 60 190 3.0 10.0 0.00 0.35 0.35 94 1014.5
20260506181041 60 190 3.0 10.0 0.00 0.35 0.35 94 1014.4
20260506181009 60 197 3.0 10.0 0.00 0.35 0.35 94 1014.4
20260506181001 60 193 3.0 10.0 0.00 0.35 0.35 94 1014.5
20260506180739 60 182 3.0 10.0 0.00 0.35 0.35 94 1014.3
20260506180638 60 268 3.0 10.0 0.00 0.35 0.35 94 1014.2
20260506180541 60 215 3.0 10.0 0.00 0.35 0.35 94 1014.1
20260506180439 59 222 3.0 10.0 0.00 0.35 0.35 94 1013.9
20260506180340 59 236 3.0 10.0 0.00 0.35 0.35 94 1013.8
20260506180236 59 275 3.0 10.0 0.00 0.35 0.35 94 1013.8
20260506180138 59 211 3.0 10.0 0.00 0.35 0.35 94 1013.8
20260506180033 59 187 4.0 10.0 0.00 0.35 0.35 94 1013.9
20260506175932 59 207 4.0 11.0 0.00 0.35 0.35 94 1013.9
20260506175838 59 211 4.0 15.0 0.00 0.35 0.35 94 1013.8
20260506175802 59 200 4.0 15.0 0.00 0.35 0.35 94 1014.0
20260506175754 59 236 5.0 15.0 0.00 0.35 0.35 94 1013.9
20260506175534 59 194 4.0 15.0 0.00 0.35 0.35 94 1014.1
20260506175434 59 144 4.0 15.0 0.00 0.35 0.35 94 1014.2
20260506175329 59 177 4.0 15.0 0.00 0.35 0.35 94 1014.2
20260506175228 59 265 4.0 15.0 0.00 0.35 0.35 94 1014.2
20260506175131 59 200 5.0 15.0 0.00 0.35 0.35 94 1014.1
20260506175029 59 170 5.0 15.0 0.00 0.35 0.35 94 1014.2
20260506174930 59 230 5.0 15.0 0.00 0.35 0.35 94 1014.2
20260506174829 59 215 5.0 13.0 0.00 0.35 0.35 94 1014.2
20260506174747 58 198 5.0 13.0 0.00 0.35 0.35 94 1014.0
20260506174742 58 225 5.0 13.0 0.00 0.35 0.35 94 1014.0
20260506174731 59 216 5.0 13.0 0.00 0.35 0.35 94 1014.2
20260506174709 58 243 5.0 13.0 0.00 0.35 0.35 94 1014.1
20260506174329 58 241 5.0 13.0 0.00 0.35 0.35 94 1014.1
20260506174300 58 200 5.0 13.0 0.00 0.35 0.35 94 1014.3
20260506174229 58 200 5.0 13.0 0.00 0.35 0.35 94 1014.3
20260506174129 58 177 5.0 13.0 0.00 0.35 0.35 94 1014.6
20260506174030 58 229 4.0 13.0 0.00 0.35 0.35 94 1014.7
20260506173943 59 225 4.0 11.0 0.00 0.35 0.35 94 1015.0
20260506173932 58 207 4.0 13.0 0.00 0.35 0.35 94 1015.0
20260506173913 58 230 4.0 11.0 0.00 0.35 0.35 94 1015.0
20260506173628 59 234 4.0 10.0 0.00 0.35 0.35 94 1015.0
20260506173528 59 234 4.0 10.0 0.00 0.35 0.35 94 1015.0
20260506173429 59 215 4.0 10.0 0.00 0.35 0.35 94 1015.0
20260506173359 59 227 4.0 10.0 0.00 0.35 0.35 94 1015.0
20260506173349 59 248 4.0 10.0 0.00 0.35 0.35 94 1015.0
20260506173128 59 196 4.0 11.0 0.00 0.35 0.35 94 1014.7
20260506173030 59 207 4.0 12.0 0.00 0.35 0.35 94 1014.5
20260506173007 59 212 5.0 12.0 0.00 0.35 0.35 94 1014.5
20260506172956 59 184 4.0 12.0 0.00 0.35 0.35 94 1014.4
20260506172726 59 222 5.0 12.0 0.00 0.35 0.35 94 1014.4
20260506172624 59 169 5.0 12.0 0.00 0.35 0.35 94 1014.4
20260506172525 59 194 5.0 12.0 0.00 0.35 0.35 94 1014.4
20260506172458 58 213 5.0 12.0 0.00 0.35 0.35 94 1014.3
20260506172449 59 242 5.0 12.0 0.00 0.35 0.35 94 1014.2
20260506172224 58 203 5.0 12.0 0.00 0.35 0.35 94 1014.2
20260506172153 58 199 4.0 11.0 0.00 0.35 0.35 94 1013.7
20260506172148 58 205 4.0 12.0 0.00 0.35 0.35 94 1013.5
20260506172136 58 202 5.0 12.0 0.00 0.35 0.35 94 1014.0
20260506172118 58 204 4.0 12.0 0.00 0.35 0.35 94 1013.6
20260506171838 58 201 4.0 11.0 0.00 0.35 0.35 94 1013.8
20260506171827 58 205 4.0 11.0 0.00 0.35 0.35 94 1013.5
20260506171802 58 206 4.0 11.0 0.00 0.35 0.35 94 1013.6
20260506171420 58 216 4.0 11.0 0.00 0.35 0.35 94 1013.9
20260506171322 58 230 4.0 11.0 0.00 0.35 0.35 94 1013.9
20260506171253 58 186 4.0 14.0 0.00 0.35 0.35 94 1013.8
20260506171243 57 212 4.0 14.0 0.00 0.35 0.35 94 1013.7
20260506171056 58 193 4.0 14.0 0.00 0.35 0.35 94 1014.5
20260506171044 57 180 4.0 14.0 0.00 0.35 0.35 94 1014.2
20260506170820 58 205 4.0 14.0 0.00 0.35 0.35 94 1014.7
20260506170755 58 221 4.0 14.0 0.00 0.35 0.35 94 1015.0
20260506170744 58 205 4.0 14.0 0.00 0.35 0.35 94 1015.0
20260506170520 58 223 4.0 14.0 0.00 0.35 0.35 94 1015.2
20260506170421 58 196 4.0 14.0 0.00 0.35 0.35 94 1015.3
20260506170320 58 239 4.0 14.0 0.00 0.35 0.35 94 1015.2
20260506170252 58 195 4.0 13.0 0.00 0.35 0.35 94 1015.1
20260506170241 58 210 4.0 13.0 0.00 0.35 0.35 94 1015.2
20260506170021 58 208 4.0 13.0 0.00 0.35 0.35 94 1015.1
20260506165951 58 198 4.0 13.0 0.00 0.35 0.35 94 1015.0
20260506165941 58 227 4.0 13.0 0.00 0.35 0.35 94 1015.0
20260506165720 58 229 4.0 13.0 0.00 0.35 0.35 94 1015.0
20260506165620 58 211 4.0 9.0 0.00 0.35 0.35 94 1014.8
20260506165520 58 227 4.0 9.0 0.00 0.35 0.35 94 1014.7
20260506165456 58 221 4.0 9.0 0.00 0.35 0.35 94 1014.6
20260506165444 58 214 4.0 9.0 0.00 0.35 0.35 94 1014.6
20260506165223 58 182 4.0 9.0 0.00 0.35 0.35 94 1014.6
20260506165158 58 207 4.0 8.0 0.00 0.35 0.35 94 1014.8
20260506165145 58 210 4.0 8.0 0.00 0.35 0.35 94 1014.6
20260506164920 58 224 4.0 8.0 0.00 0.35 0.35 94 1014.8
20260506164821 58 210 4.0 9.0 0.00 0.35 0.35 94 1014.7
20260506164715 58 228 4.0 9.0 0.00 0.35 0.35 94 1014.8
20260506164615 58 220 4.0 11.0 0.00 0.35 0.35 94 1014.8
20260506164547 58 207 4.0 11.0 0.00 0.35 0.35 94 1014.8
20260506164537 58 186 4.0 11.0 0.00 0.35 0.35 94 1014.8
20260506164314 58 202 4.0 11.0 0.00 0.35 0.35 94 1015.0
20260506164240 58 213 4.0 11.0 0.00 0.35 0.35 94 1014.8
20260506164228 58 218 4.0 11.0 0.00 0.35 0.35 94 1014.8
20260506164010 58 211 4.0 11.0 0.00 0.35 0.35 94 1014.7
20260506163943 58 268 4.0 11.0 0.00 0.35 0.35 94 1014.7
20260506163932 58 213 4.0 11.0 0.00 0.35 0.35 94 1014.7
20260506163708 58 209 4.0 11.0 0.00 0.35 0.35 94 1014.7
20260506163606 58 209 4.0 9.0 0.00 0.35 0.35 94 1014.6
20260506163506 58 194 4.0 9.0 0.00 0.35 0.35 94 1014.5
20260506163441 59 218 4.0 11.0 0.00 0.35 0.35 94 1014.5
20260506163429 58 201 4.0 9.0 0.00 0.35 0.35 94 1014.5
20260506163221 59 208 4.0 11.0 0.00 0.35 0.35 94 1014.3
20260506163209 59 217 4.0 11.0 0.00 0.35 0.35 94 1014.5
20260506163146 59 205 4.0 11.0 0.00 0.35 0.35 94 1014.4
20260506163022 59 198 4.0 11.0 0.00 0.35 0.35 94 1014.4
20260506162802 59 227 4.0 11.0 0.00 0.35 0.35 94 1014.4
20260506162703 59 232 4.0 11.0 0.00 0.35 0.35 94 1014.4
20260506162633 59 211 5.0 11.0 0.00 0.35 0.35 94 1014.5
20260506162622 59 219 4.0 11.0 0.00 0.35 0.35 94 1014.5
20260506162358 59 244 5.0 11.0 0.00 0.35 0.35 94 1014.5
20260506162258 59 198 5.0 11.0 0.00 0.35 0.35 94 1014.5
20260506162157 59 203 4.0 11.0 0.00 0.35 0.35 94 1014.5
20260506162056 59 202 4.0 10.0 0.00 0.35 0.35 94 1014.4
20260506161952 59 254 4.0 10.0 0.00 0.35 0.35 94 1014.3
20260506161852 59 223 4.0 10.0 0.00 0.35 0.35 94 1014.3
20260506161823 58 262 4.0 9.0 0.00 0.35 0.35 94 1014.3
20260506161812 58 218 4.0 10.0 0.00 0.35 0.35 94 1014.3
20260506161552 58 222 4.0 10.0 0.00 0.35 0.35 94 1014.4
20260506161447 58 211 4.0 10.0 0.00 0.35 0.35 94 1014.6
20260506161347 58 200 4.0 10.0 0.00 0.35 0.35 94 1014.6
20260506161246 58 247 4.0 10.0 0.00 0.35 0.35 94 1014.6
20260506161146 58 274 4.0 10.0 0.00 0.35 0.35 94 1014.6
20260506161046 58 236 4.0 10.0 0.00 0.35 0.35 94 1014.5
20260506160935 58 248 4.0 10.0 0.00 0.35 0.35 94 1014.5
20260506160835 58 295 5.0 10.0 0.00 0.35 0.35 94 1014.6
20260506160735 58 251 5.0 10.0 0.00 0.35 0.35 94 1014.7
20260506160708 58 277 4.0 10.0 0.00 0.35 0.35 94 1014.7
20260506160657 58 296 5.0 10.0 0.00 0.35 0.35 94 1014.7
20260506160432 58 252 5.0 12.0 0.00 0.35 0.35 94 1014.7
20260506160328 58 282 5.0 12.0 0.00 0.35 0.35 94 1014.7
20260506160307 58 317 5.0 12.0 0.00 0.35 0.35 94 1014.7
20260506160253 58 266 5.0 12.0 0.00 0.35 0.35 94 1014.7
20260506160100 58 289 6.0 12.0 0.00 0.35 0.35 94 1014.7
20260506160050 58 293 6.0 12.0 0.00 0.35 0.35 94 1014.7
20260506155826 58 293 6.0 13.0 0.00 0.35 0.35 94 1014.8
20260506155724 58 288 6.0 13.0 0.00 0.35 0.35 94 1014.7
20260506155625 58 309 6.0 13.0 0.00 0.35 0.35 94 1014.7
20260506155522 58 319 6.0 13.0 0.00 0.35 0.35 94 1014.7
20260506155410 58 255 6.0 13.0 0.00 0.35 0.35 94 1014.8
20260506155309 59 270 5.0 13.0 0.00 0.35 0.35 94 1014.6
20260506155210 59 330 5.0 13.0 0.00 0.35 0.35 94 1014.6
20260506155108 60 306 5.0 13.0 0.00 0.35 0.35 94 1014.5
20260506155009 60 299 4.0 13.0 0.00 0.35 0.35 94 1014.6
20260506154903 61 301 4.0 11.0 0.00 0.35 0.35 94 1014.6
20260506154802 61 339 4.0 11.0 0.00 0.35 0.35 94 1014.6
20260506154702 62 315 3.0 11.0 0.00 0.35 0.35 94 1014.6
20260506154603 62 324 3.0 11.0 0.00 0.35 0.35 94 1014.4
20260506154505 62 236 3.0 11.0 0.00 0.35 0.35 94 1014.4
20260506154429 62 329 2.0 11.0 0.00 0.35 0.35 94 1014.4
20260506154419 62 288 3.0 11.0 0.00 0.35 0.35 94 1014.4
20260506154157 62 235 2.0 11.0 0.00 0.35 0.35 94 1014.4
20260506154056 62 234 2.0 11.0 0.00 0.35 0.35 94 1014.4
20260506153957 62 249 3.0 11.0 0.00 0.35 0.35 94 1014.2
20260506153849 62 230 3.0 11.0 0.00 0.35 0.35 94 1014.2
20260506153748 62 296 3.0 10.0 0.00 0.35 0.35 94 1014.1
20260506153648 62 232 3.0 10.0 0.00 0.35 0.35 94 1014.1
20260506153551 62 347 3.0 10.0 0.00 0.35 0.35 94 1014.1
20260506153515 62 236 3.0 12.0 0.00 0.35 0.35 94 1014.2
20260506153505 62 238 3.0 10.0 0.00 0.35 0.35 94 1014.2
20260506153240 62 236 4.0 12.0 0.00 0.35 0.35 94 1014.1
20260506153157 62 241 4.0 12.0 0.00 0.35 0.35 94 1014.0
20260506153151 62 209 4.0 13.0 0.00 0.35 0.35 94 1014.1
20260506153141 62 208 4.0 12.0 0.00 0.35 0.35 94 1014.1
20260506153119 62 265 4.0 12.0 0.00 0.35 0.35 94 1014.0
20260506152735 62 238 4.0 13.0 0.00 0.35 0.35 94 1014.0
20260506152656 62 246 5.0 16.0 0.00 0.35 0.35 94 1013.9
20260506152643 62 229 4.0 16.0 0.00 0.35 0.35 94 1014.0
20260506152619 62 186 4.0 16.0 0.00 0.35 0.35 94 1013.8
20260506152435 62 246 5.0 16.0 0.00 0.35 0.35 94 1013.9
20260506152325 62 192 5.0 16.0 0.00 0.35 0.35 94 1013.8
20260506152222 62 192 5.0 16.0 0.00 0.35 0.35 94 1013.6
20260506152123 62 244 6.0 16.0 0.00 0.35 0.35 94 1013.7
20260506152057 62 207 5.0 16.0 0.00 0.35 0.35 94 1013.6
20260506152044 62 221 5.0 16.0 0.00 0.35 0.35 94 1013.6
20260506151816 62 217 5.0 16.0 0.00 0.35 0.35 94 1013.5
20260506151716 62 254 5.0 14.0 0.00 0.35 0.35 94 1013.5
20260506151615 62 149 4.0 14.0 0.00 0.35 0.35 94 1013.5
20260506151514 62 199 5.0 14.0 0.00 0.35 0.35 94 1013.5
20260506151414 62 196 5.0 14.0 0.00 0.35 0.35 94 1013.5
20260506151345 62 189 4.0 14.0 0.00 0.35 0.35 94 1013.4
20260506151333 62 217 4.0 14.0 0.00 0.35 0.35 94 1013.4
20260506151147 62 216 4.0 11.0 0.00 0.35 0.35 94 1013.4
20260506151135 62 211 4.0 11.0 0.00 0.35 0.35 94 1013.2
20260506150908 62 207 4.0 11.0 0.00 0.35 0.35 94 1013.4
20260506150759 62 205 4.0 11.0 0.00 0.35 0.35 94 1013.4
20260506150658 62 205 4.0 11.0 0.00 0.35 0.35 94 1013.2
20260506150627 62 221 4.0 11.0 0.00 0.35 0.35 94 1013.4
20260506150619 62 241 4.0 11.0 0.00 0.35 0.35 94 1013.2
20260506150358 62 213 4.0 11.0 0.00 0.35 0.35 94 1013.4
20260506150252 62 173 4.0 11.0 0.00 0.35 0.35 94 1013.2
20260506150151 62 212 4.0 10.0 0.00 0.35 0.35 94 1013.2
20260506150054 61 214 4.0 10.0 0.00 0.35 0.35 94 1013.2
20260506145954 62 215 4.0 10.0 0.00 0.35 0.35 94 1013.1
20260506145852 61 209 4.0 23.0 0.00 0.35 0.35 94 1013.1
20260506145750 61 182 4.0 23.0 0.00 0.35 0.35 94 1013.0
20260506145649 61 194 4.0 23.0 0.00 0.35 0.35 94 1013.0
20260506145549 61 209 5.0 23.0 0.00 0.35 0.35 94 1013.0
20260506145449 61 190 5.0 23.0 0.00 0.35 0.35 94 1013.0
20260506145347 61 223 5.0 23.0 0.00 0.35 0.35 94 1012.9
20260506145307 61 137 5.0 23.0 0.00 0.35 0.35 94 1013.0
20260506145256 61 209 5.0 23.0 0.00 0.35 0.35 94 1012.9
20260506145044 61 222 5.0 12.0 0.00 0.35 0.35 94 1013.1
20260506145033 61 204 5.0 23.0 0.00 0.35 0.35 94 1013.0
20260506145026 61 188 5.0 12.0 0.00 0.35 0.35 94 1013.1
20260506145008 61 186 5.0 22.0 0.00 0.35 0.35 94 1013.1
20260506144625 61 221 5.0 12.0 0.00 0.35 0.35 94 1013.1
20260506144528 61 134 5.0 12.0 0.00 0.35 0.35 94 1013.1
20260506144428 61 211 5.0 12.0 0.00 0.35 0.35 94 1013.0
20260506144327 61 215 5.0 12.0 0.00 0.35 0.35 94 1013.0
20260506144259 61 203 4.0 12.0 0.00 0.35 0.35 94 1012.9
20260506144248 61 227 5.0 12.0 0.00 0.35 0.35 94 1013.0
20260506144100 61 192 4.0 13.0 0.00 0.35 0.35 94 1012.8
20260506144047 61 210 4.0 11.0 0.00 0.35 0.35 94 1012.9
20260506143820 61 200 4.0 13.0 0.00 0.35 0.35 94 1012.8
20260506143713 61 221 4.0 13.0 0.00 0.35 0.35 94 1012.7
20260506143610 61 116 4.0 13.0 0.00 0.35 0.35 94 1012.6
20260506143529 61 200 4.0 13.0 0.00 0.35 0.35 94 1012.7
20260506143517 61 152 4.0 13.0 0.00 0.35 0.35 94 1012.7
20260506143509 61 153 4.0 13.0 0.00 0.35 0.35 94 1012.6
20260506143448 61 200 4.0 13.0 0.00 0.35 0.35 94 1012.7
20260506143142 60 161 4.0 14.0 0.00 0.35 0.35 94 1012.6
20260506143132 61 186 4.0 13.0 0.00 0.35 0.35 94 1012.6
20260506142907 60 196 4.0 14.0 0.00 0.35 0.35 94 1012.6
20260506142840 61 198 4.0 14.0 0.00 0.35 0.35 94 1012.7
20260506142826 61 157 4.0 14.0 0.00 0.35 0.35 94 1012.6
20260506142558 61 169 4.0 14.0 0.00 0.35 0.35 94 1012.6
20260506142538 61 120 4.0 14.0 0.00 0.35 0.35 94 1012.8
20260506142523 60 202 4.0 14.0 0.00 0.35 0.35 94 1012.8
20260506142259 61 203 5.0 14.0 0.00 0.35 0.35 94 1012.9
20260506142145 60 180 4.0 14.0 0.00 0.35 0.35 94 1012.9
20260506142046 60 205 4.0 14.0 0.00 0.35 0.35 94 1012.8
20260506141945 61 190 5.0 15.0 0.00 0.35 0.35 94 1012.8
20260506141843 61 130 4.0 15.0 0.00 0.35 0.35 94 1012.8
20260506141744 60 169 5.0 15.0 0.00 0.35 0.35 94 1012.9
20260506141642 61 236 4.0 15.0 0.00 0.35 0.35 94 1013.0
20260506141542 61 203 4.0 15.0 0.00 0.35 0.35 94 1013.0
20260506141441 61 185 4.0 15.0 0.00 0.35 0.35 94 1012.9
20260506141413 61 197 4.0 15.0 0.00 0.35 0.35 94 1012.8
20260506141402 61 188 4.0 15.0 0.00 0.35 0.35 94 1013.0
20260506141136 61 173 4.0 15.0 0.00 0.35 0.35 94 1012.8
20260506141032 61 163 4.0 15.0 0.00 0.35 0.35 94 1012.9
20260506140933 61 180 4.0 13.0 0.00 0.35 0.35 94 1012.8
20260506140833 61 174 4.0 13.0 0.00 0.35 0.35 94 1012.9
20260506140733 61 175 4.0 13.0 0.00 0.35 0.35 94 1012.9
20260506140700 61 281 4.0 13.0 0.00 0.35 0.35 94 1012.8
20260506140644 61 137 4.0 13.0 0.00 0.35 0.35 94 1012.8
20260506140422 61 172 4.0 13.0 0.00 0.35 0.35 94 1012.8
20260506140322 61 182 4.0 13.0 0.00 0.35 0.35 94 1012.8
20260506140223 61 177 4.0 10.0 0.00 0.35 0.35 94 1012.8
20260506140117 61 178 4.0 10.0 0.00 0.35 0.35 94 1012.8
20260506140017 61 199 4.0 10.0 0.00 0.35 0.35 94 1012.8
20260506135917 61 199 4.0 10.0 0.00 0.35 0.35 94 1012.7
20260506135815 61 246 4.0 10.0 0.00 0.35 0.35 94 1012.7
20260506135716 61 142 4.0 10.0 0.00 0.35 0.35 94 1012.7
20260506135614 61 203 4.0 10.0 0.00 0.35 0.35 94 1012.7
20260506135511 61 173 4.0 10.0 0.00 0.35 0.35 94 1012.7
20260506135412 61 186 4.0 10.0 0.00 0.35 0.35 94 1012.6
20260506135309 61 191 4.0 10.0 0.00 0.35 0.35 94 1012.6
20260506135211 61 220 4.0 11.0 0.00 0.35 0.35 94 1012.6
20260506135055 61 194 4.0 11.0 0.00 0.35 0.35 94 1012.6
20260506134956 61 162 3.0 11.0 0.00 0.35 0.35 94 1012.6
20260506134929 61 229 3.0 11.0 0.00 0.35 0.35 94 1012.7
20260506134918 61 160 4.0 11.0 0.00 0.35 0.35 94 1012.7
20260506134658 61 211 4.0 11.0 0.00 0.35 0.35 94 1012.6
20260506134552 61 186 4.0 11.0 0.00 0.35 0.35 94 1012.6
20260506134449 61 200 4.0 11.0 0.00 0.35 0.35 94 1012.6
20260506134351 61 159 3.0 11.0 0.00 0.35 0.35 94 1012.7
20260506134250 61 202 3.0 11.0 0.00 0.35 0.35 94 1012.7
20260506134153 61 194 4.0 11.0 0.00 0.35 0.35 94 1012.7
20260506134046 61 202 4.0 11.0 0.00 0.35 0.35 94 1012.8
20260506134022 61 207 4.0 15.0 0.00 0.35 0.35 94 1012.8
20260506134010 61 205 4.0 15.0 0.00 0.35 0.35 94 1012.8
20260506133743 61 216 4.0 15.0 0.00 0.35 0.35 94 1013.0
20260506133645 61 215 4.0 15.0 0.00 0.35 0.35 94 1013.1
20260506133534 61 206 4.0 15.0 0.00 0.35 0.35 94 1013.1
20260506133434 61 241 4.0 15.0 0.00 0.35 0.35 94 1013.2
20260506133335 61 223 4.0 15.0 0.00 0.35 0.35 94 1013.1
20260506133235 61 206 4.0 15.0 0.00 0.35 0.35 94 1013.1
20260506133134 61 194 4.0 15.0 0.00 0.35 0.35 94 1013.2
20260506133032 61 193 4.0 15.0 0.00 0.35 0.35 94 1013.5
20260506132932 61 194 4.0 14.0 0.00 0.35 0.35 94 1013.6
20260506132833 61 211 4.0 14.0 0.00 0.35 0.35 94 1013.5
20260506132731 61 204 4.0 14.0 0.00 0.35 0.35 94 1013.5
20260506132628 61 190 5.0 14.0 0.00 0.35 0.35 94 1013.4
20260506132524 61 222 5.0 15.0 0.00 0.35 0.35 94 1013.4
20260506132422 61 202 5.0 15.0 0.00 0.35 0.35 94 1013.6
20260506132323 61 249 5.0 15.0 0.00 0.35 0.35 94 1013.8
20260506132222 61 194 5.0 15.0 0.00 0.35 0.35 94 1013.9
20260506132123 61 223 5.0 15.0 0.00 0.35 0.35 94 1014.1
20260506132011 61 196 5.0 15.0 0.00 0.35 0.35 94 1014.1
20260506131910 61 240 6.0 15.0 0.00 0.35 0.35 94 1014.1
20260506131811 61 211 6.0 15.0 0.00 0.35 0.35 94 1014.0
20260506131711 61 223 6.0 15.0 0.00 0.35 0.35 94 1013.9
20260506131609 61 222 6.0 15.0 0.00 0.35 0.35 94 1014.0
20260506131503 61 223 6.0 15.0 0.00 0.35 0.35 94 1014.1
20260506131403 61 227 6.0 15.0 0.00 0.35 0.35 94 1014.2
20260506131303 61 203 6.0 18.0 0.00 0.35 0.35 94 1014.1
20260506131202 61 215 6.0 18.0 0.00 0.35 0.35 94 1014.0
20260506131131 61 198 6.0 18.0 0.00 0.35 0.35 94 1013.9
20260506131121 61 198 6.0 18.0 0.00 0.35 0.35 94 1013.9
20260506130858 61 213 6.0 21.0 0.00 0.35 0.35 94 1013.9
20260506130832 61 223 6.0 21.0 0.00 0.35 0.35 94 1013.9
20260506130819 61 311 6.0 21.0 0.00 0.35 0.35 94 1013.9
20260506130557 61 211 6.0 21.0 0.00 0.35 0.35 94 1013.8
20260506130447 61 199 7.0 21.0 0.00 0.35 0.35 94 1013.8
20260506130345 61 293 6.0 21.0 0.00 0.35 0.35 94 1013.8
20260506130248 61 11 7.0 21.0 0.00 0.35 0.35 94 1013.7
20260506130147 61 195 7.0 21.0 0.00 0.35 0.35 94 1013.7
20260506130048 61 224 7.0 21.0 0.00 0.35 0.35 94 1013.6
20260506125944 61 215 7.0 21.0 0.00 0.35 0.35 94 1013.6
20260506125843 61 167 7.0 20.0 0.00 0.35 0.35 94 1013.5
20260506125745 61 188 7.0 20.0 0.00 0.35 0.35 94 1013.5
20260506125643 61 202 7.0 20.0 0.00 0.35 0.35 94 1013.5
20260506125543 61 222 7.0 20.0 0.00 0.35 0.35 94 1013.4
20260506125444 61 239 6.0 20.0 0.00 0.35 0.35 94 1013.4
20260506125344 61 220 7.0 20.0 0.00 0.35 0.35 94 1013.1
20260506125243 61 174 7.0 20.0 0.00 0.35 0.35 94 1013.1
20260506125144 61 202 7.0 20.0 0.00 0.35 0.35 94 1013.0
20260506125044 61 207 7.0 20.0 0.00 0.35 0.35 94 1013.0
20260506124949 61 200 7.0 19.0 0.00 0.35 0.35 94 1012.8
20260506124845 61 215 7.0 19.0 0.00 0.35 0.35 94 1012.8
20260506124742 61 186 7.0 19.0 0.00 0.35 0.35 94 1012.7
20260506124641 61 215 7.0 19.0 0.00 0.35 0.35 94 1012.8
20260506124542 61 203 7.0 19.0 0.00 0.35 0.35 94 1012.7
20260506124443 61 200 7.0 19.0 0.00 0.35 0.35 94 1012.6
20260506124341 61 229 7.0 19.0 0.00 0.35 0.35 94 1012.6
20260506124242 61 203 7.0 18.0 0.00 0.35 0.35 94 1012.5
20260506124142 61 206 7.0 18.0 0.00 0.35 0.35 94 1012.6
20260506124113 61 286 7.0 16.0 0.00 0.35 0.35 94 1012.4
20260506124103 61 220 7.0 17.0 0.00 0.35 0.35 94 1012.5
20260506123842 61 211 7.0 24.0 0.00 0.35 0.35 94 1012.5
20260506123742 61 220 7.0 24.0 0.00 0.35 0.35 94 1012.4
20260506123642 61 249 7.0 24.0 0.00 0.35 0.35 94 1012.3
20260506123542 61 188 8.0 24.0 0.00 0.35 0.35 94 1012.3
20260506123441 61 213 8.0 24.0 0.00 0.35 0.35 94 1012.3
20260506123416 61 230 8.0 24.0 0.00 0.35 0.35 94 1012.3
20260506123403 61 201 8.0 24.0 0.00 0.35 0.35 94 1012.4
20260506123141 61 211 7.0 24.0 0.00 0.35 0.35 94 1012.3
20260506123112 61 195 7.0 24.0 0.00 0.35 0.35 94 1012.3
20260506123100 61 187 7.0 24.0 0.00 0.35 0.35 94 1012.3
20260506122838 61 193 7.0 19.0 0.00 0.35 0.35 94 1012.2
20260506122738 61 215 7.0 19.0 0.00 0.35 0.35 94 1012.2
20260506122638 61 166 7.0 19.0 0.00 0.35 0.35 94 1012.2
20260506122538 61 141 7.0 19.0 0.00 0.35 0.35 94 1012.2
20260506122438 61 213 7.0 18.0 0.00 0.35 0.35 94 1012.2
20260506122337 61 176 8.0 19.0 0.00 0.35 0.35 94 1012.3
20260506122237 61 215 7.0 23.0 0.00 0.35 0.35 94 1012.2
20260506122138 61 209 7.0 23.0 0.00 0.35 0.35 94 1012.1
20260506122040 61 202 8.0 23.0 0.00 0.35 0.35 94 1012.0
20260506121939 61 185 8.0 23.0 0.00 0.35 0.35 94 1012.1
20260506121833 61 189 8.0 23.0 0.00 0.35 0.35 94 1012.0
20260506121735 61 188 8.0 23.0 0.01 0.35 0.35 94 1012.0
20260506121634 61 221 8.0 23.0 0.01 0.35 0.35 94 1011.9
20260506121534 61 201 8.0 23.0 0.02 0.35 0.35 94 1011.9
20260506121433 61 202 8.0 23.0 0.02 0.35 0.35 94 1011.8
20260506121333 61 196 7.0 21.0 0.02 0.35 0.35 94 1011.8
20260506121304 61 197 8.0 21.0 0.03 0.35 0.35 94 1011.7
20260506121255 61 200 7.0 21.0 0.03 0.35 0.35 94 1011.8
20260506121033 61 199 7.0 21.0 0.03 0.35 0.35 94 1011.8
20260506120933 61 187 7.0 21.0 0.03 0.35 0.35 94 1011.7
20260506120833 61 193 8.0 21.0 0.04 0.35 0.35 94 1011.5
20260506120731 61 148 8.0 21.0 0.05 0.35 0.35 94 1011.7
20260506120632 61 254 7.0 21.0 0.05 0.35 0.35 94 1011.4
20260506120532 61 211 7.0 21.0 0.05 0.35 0.35 94 1011.3
20260506120507 61 221 8.0 25.0 0.06 0.35 0.35 94 1011.4
20260506120453 61 190 8.0 21.0 0.06 0.35 0.35 94 1011.4
20260506120232 61 205 8.0 25.0 0.06 0.35 0.35 94 1011.3
20260506120132 61 202 8.0 25.0 0.07 0.35 0.35 94 1011.3
20260506120032 61 202 8.0 25.0 0.07 0.35 0.35 94 1011.3
20260506115931 61 199 8.0 25.0 0.07 0.35 0.35 94 1011.3
20260506115831 61 225 8.0 25.0 0.08 0.35 0.35 94 1011.3
20260506115731 61 194 8.0 25.0 0.08 0.35 0.35 94 1011.3
20260506115631 61 190 8.0 25.0 0.08 0.35 0.35 94 1011.4
20260506115534 61 229 8.0 25.0 0.08 0.35 0.35 94 1011.2
20260506115431 61 184 7.0 25.0 0.10 0.35 0.35 94 1011.3
20260506115331 61 192 7.0 20.0 0.11 0.35 0.35 94 1011.3
20260506115307 61 190 8.0 27.0 0.12 0.35 0.35 94 1011.4
20260506115259 61 194 7.0 20.0 0.12 0.35 0.35 94 1011.3
20260506115245 61 201 7.0 20.0 0.11 0.35 0.35 94 1011.2
20260506115227 61 219 7.0 20.0 0.12 0.35 0.35 94 1011.2
20260506114939 61 213 7.0 27.0 0.12 0.35 0.35 94 1011.3
20260506114750 61 204 8.0 27.0 0.13 0.35 0.35 94 1011.3
20260506114740 61 202 8.0 27.0 0.12 0.35 0.35 94 1011.3
20260506114548 61 202 8.0 27.0 0.14 0.35 0.35 94 1011.2
20260506114538 61 186 8.0 27.0 0.13 0.35 0.35 94 1011.2
20260506114337 61 215 9.0 27.0 0.15 0.35 0.35 94 1010.7
20260506114331 61 202 9.0 27.0 0.15 0.35 0.35 94 1010.8
20260506114320 61 182 8.0 27.0 0.14 0.35 0.35 94 1011.2
20260506114256 61 199 9.0 27.0 0.15 0.35 0.35 94 1010.9
20260506113939 61 207 9.0 26.0 0.16 0.35 0.35 94 1010.9
20260506113928 61 200 9.0 26.0 0.16 0.35 0.35 94 1010.7
20260506113706 61 205 9.0 26.0 0.16 0.35 0.35 94 1011.1
20260506113608 61 192 9.0 26.0 0.16 0.35 0.35 94 1011.2
20260506113507 61 194 9.0 26.0 0.16 0.35 0.35 94 1011.3
20260506113357 61 207 9.0 26.0 0.16 0.35 0.35 94 1011.3
20260506113257 61 185 9.0 26.0 0.17 0.35 0.35 94 1011.3
20260506113157 61 157 9.0 26.0 0.17 0.35 0.35 94 1011.3
20260506113057 61 216 9.0 26.0 0.17 0.35 0.35 94 1011.4
20260506112958 61 195 8.0 20.0 0.18 0.35 0.35 94 1011.3
20260506112932 61 170 8.0 20.0 0.18 0.35 0.35 94 1011.2
20260506112751 61 188 8.0 20.0 0.18 0.35 0.35 94 1011.2
20260506112652 61 171 8.0 20.0 0.19 0.35 0.35 94 1011.4
20260506112553 61 175 8.0 20.0 0.19 0.35 0.35 94 1011.4
20260506112452 61 186 8.0 20.0 0.19 0.35 0.35 94 1011.8
20260506112352 61 213 8.0 20.0 0.19 0.35 0.35 94 1011.9
20260506112252 61 213 8.0 20.0 0.20 0.35 0.35 94 1011.9
20260506112152 61 188 8.0 23.0 0.20 0.35 0.35 94 1012.0
20260506112053 61 207 8.0 23.0 0.20 0.35 0.35 94 1011.9
20260506112030 61 201 8.0 23.0 0.21 0.35 0.35 94 1011.9
20260506112018 61 224 8.0 23.0 0.21 0.35 0.35 94 1011.9
20260506111753 61 205 8.0 23.0 0.20 0.34 0.35 94 1012.0
20260506111647 61 186 8.0 23.0 0.20 0.34 0.34 94 1012.0
20260506111547 61 194 8.0 23.0 0.20 0.34 0.34 94 1011.9
20260506111446 61 194 8.0 23.0 0.20 0.33 0.34 94 1011.9
20260506111348 61 222 8.0 23.0 0.20 0.33 0.33 94 1012.0
20260506111247 61 222 8.0 23.0 0.19 0.32 0.33 94 1012.0
20260506111144 61 236 8.0 22.0 0.19 0.32 0.32 94 1011.9
20260506111119 61 219 8.0 22.0 0.19 0.32 0.32 94 1011.8
20260506111108 61 200 8.0 22.0 0.19 0.32 0.32 94 1011.9
20260506110842 61 208 8.0 22.0 0.18 0.31 0.31 94 1011.8
20260506110819 61 197 7.0 22.0 0.17 0.30 0.30 94 1011.7
20260506110806 61 194 7.0 22.0 0.17 0.30 0.31 94 1011.7
20260506110541 61 178 7.0 22.0 0.18 0.30 0.30 94 1011.8
20260506110441 61 196 7.0 22.0 0.17 0.29 0.30 94 1011.7
20260506110342 61 244 7.0 22.0 0.17 0.29 0.29 94 1011.8
20260506110242 61 188 7.0 22.0 0.17 0.29 0.29 94 1011.8
20260506110217 61 205 7.0 22.0 0.16 0.28 0.28 94 1011.9
20260506110205 61 223 7.0 22.0 0.16 0.28 0.29 94 1011.9
20260506105942 61 213 7.0 22.0 0.16 0.28 0.28 94 1011.9
20260506105841 61 217 7.0 22.0 0.15 0.27 0.28 94 1012.0
20260506105741 61 190 7.0 22.0 0.15 0.27 0.27 94 1011.9
20260506105642 61 207 7.0 22.0 0.15 0.27 0.27 94 1011.9
20260506105542 61 231 7.0 22.0 0.15 0.27 0.27 94 1011.9
20260506105515 61 195 7.0 22.0 0.13 0.24 0.25 94 1012.2
20260506105504 61 190 7.0 22.0 0.13 0.25 0.25 94 1012.2
20260506105237 61 207 7.0 20.0 0.13 0.24 0.24 94 1012.0
20260506105139 61 192 7.0 20.0 0.12 0.23 0.24 94 1012.1
20260506105057 61 200 7.0 20.0 0.14 0.23 0.23 94 1011.9
20260506105051 61 212 7.0 17.0 0.15 0.23 0.23 94 1011.9
20260506105040 61 195 7.0 20.0 0.13 0.23 0.23 94 1011.9
20260506105018 61 219 7.0 20.0 0.13 0.23 0.23 94 1011.9
20260506104638 61 214 7.0 17.0 0.14 0.22 0.22 94 1011.8
20260506104534 61 240 7.0 17.0 0.14 0.22 0.22 94 1011.7
20260506104435 61 196 7.0 17.0 0.13 0.21 0.22 94 1011.8
20260506104334 61 180 7.0 16.0 0.14 0.21 0.21 94 1011.8
20260506104310 61 194 7.0 19.0 0.13 0.20 0.21 94 1011.8
20260506104258 61 205 7.0 19.0 0.14 0.21 0.21 94 1011.8
20260506104034 61 250 7.0 19.0 0.14 0.20 0.20 94 1011.8
20260506103934 61 171 7.0 19.0 0.14 0.20 0.20 94 1011.8
20260506103835 61 173 7.0 19.0 0.13 0.19 0.20 94 1011.9
20260506103734 61 198 6.0 19.0 0.14 0.19 0.19 94 1011.8
20260506103634 61 217 6.0 19.0 0.14 0.19 0.19 94 1011.8
20260506103610 61 215 7.0 19.0 0.14 0.19 0.19 94 1011.8
20260506103558 61 181 7.0 19.0 0.14 0.19 0.19 94 1011.9
20260506103334 61 222 7.0 19.0 0.14 0.19 0.19 94 1011.9
20260506103235 61 199 7.0 19.0 0.13 0.18 0.19 94 1011.9
20260506103135 60 208 7.0 19.0 0.13 0.18 0.18 94 1011.8
20260506103058 60 202 7.0 17.0 0.12 0.17 0.17 94 1011.5
20260506103048 61 198 7.0 17.0 0.13 0.18 0.18 94 1011.7
20260506103025 60 217 7.0 17.0 0.12 0.17 0.18 93 1011.7
20260506102859 60 193 7.0 17.0 0.12 0.17 0.17 94 1011.5
20260506102635 60 200 7.0 17.0 0.12 0.16 0.17 94 1011.5
20260506102534 60 200 7.0 17.0 0.12 0.16 0.16 94 1011.5
20260506102507 61 206 7.0 22.0 0.12 0.16 0.16 94 1011.5
20260506102455 60 193 7.0 17.0 0.12 0.16 0.16 94 1011.7
20260506102233 60 210 7.0 22.0 0.11 0.15 0.16 94 1011.7
20260506102135 60 200 7.0 22.0 0.11 0.15 0.15 94 1011.5
20260506102035 61 221 7.0 22.0 0.11 0.15 0.15 94 1011.5
20260506101935 61 213 7.0 22.0 0.10 0.14 0.15 94 1011.7
20260506101834 61 198 7.0 22.0 0.10 0.14 0.14 94 1011.5
20260506101734 61 206 7.0 22.0 0.10 0.14 0.14 94 1011.4
20260506101706 61 236 7.0 22.0 0.10 0.14 0.14 94 1011.4
20260506101657 61 217 7.0 22.0 0.10 0.14 0.14 94 1011.4
20260506101434 61 194 7.0 22.0 0.09 0.13 0.14 94 1011.4
20260506101333 61 213 7.0 16.0 0.09 0.13 0.13 94 1011.4
20260506101309 61 194 7.0 21.0 0.11 0.13 0.13 94 1011.3
20260506101257 61 211 7.0 16.0 0.10 0.13 0.13 94 1011.4
20260506101033 61 199 8.0 21.0 0.11 0.13 0.13 94 1011.2
20260506100933 61 192 8.0 21.0 0.11 0.13 0.13 94 1011.2
20260506100841 61 166 8.0 21.0 0.11 0.13 0.13 94 1011.2
20260506100734 61 207 8.0 21.0 0.12 0.13 0.13 94 1011.2
20260506100635 61 192 7.0 21.0 0.11 0.12 0.13 94 1011.1
20260506100533 61 207 7.0 21.0 0.11 0.12 0.12 94 1011.0
20260506100434 61 165 7.0 21.0 0.11 0.12 0.12 94 1011.0
20260506100333 61 195 7.0 21.0 0.11 0.12 0.12 94 1011.0
20260506100233 61 146 7.0 21.0 0.11 0.12 0.12 94 1010.8
20260506100133 61 192 6.0 17.0 0.11 0.12 0.12 94 1010.8
20260506100035 61 188 6.0 17.0 0.12 0.12 0.12 94 1010.9
20260506100013 61 194 6.0 18.0 0.12 0.12 0.12 93 1011.0
20260506100009 61 234 6.0 18.0 0.12 0.12 0.12 93 1011.0
20260506100003 61 212 6.0 18.0 0.12 0.12 0.12 93 1011.1
20260506095948 61 206 6.0 17.0 0.12 0.12 0.12 93 1010.9
20260506095928 61 244 6.0 17.0 0.12 0.12 0.12 93 1010.9
20260506095428 61 191 7.0 18.0 0.11 0.11 0.11 93 1011.1
20260506095329 61 186 7.0 18.0 0.11 0.11 0.11 93 1011.2
20260506095227 61 219 7.0 18.0 0.11 0.11 0.11 93 1011.2
20260506095127 61 172 7.0 18.0 0.10 0.10 0.10 93 1011.4
20260506095028 61 200 7.0 18.0 0.10 0.10 0.10 93 1011.3
20260506095002 61 198 7.0 18.0 0.09 0.09 0.09 93 1011.3
20260506094951 61 192 7.0 18.0 0.10 0.10 0.10 93 1011.3
20260506094728 61 180 7.0 17.0 0.08 0.08 0.09 93 1011.4
20260506094658 61 184 7.0 17.0 0.08 0.08 0.08 93 1011.4
20260506094643 61 213 7.0 17.0 0.08 0.08 0.08 93 1011.4
20260506094420 61 211 7.0 17.0 0.07 0.07 0.08 93 1011.3
20260506094318 61 205 6.0 17.0 0.07 0.07 0.07 93 1011.3
20260506094251 61 187 6.0 16.0 0.06 0.06 0.07 92 1011.3
20260506094241 61 203 6.0 17.0 0.07 0.07 0.07 92 1011.3
20260506094013 61 219 6.0 16.0 0.06 0.06 0.06 92 1011.3
20260506093912 61 204 6.0 16.0 0.06 0.06 0.06 92 1011.2
20260506093812 61 178 7.0 20.0 0.06 0.06 0.06 92 1011.2
20260506093712 61 194 7.0 20.0 0.05 0.05 0.06 92 1011.2
20260506093607 61 198 6.0 20.0 0.05 0.05 0.05 92 1011.2
20260506093509 61 166 6.0 20.0 0.05 0.05 0.05 92 1011.1
20260506093407 61 194 6.0 20.0 0.05 0.05 0.05 92 1011.2
20260506093309 61 200 6.0 20.0 0.05 0.05 0.05 92 1011.2
20260506093206 61 191 7.0 20.0 0.05 0.05 0.05 91 1011.2
20260506093053 61 178 7.0 20.0 0.05 0.05 0.05 91 1011.1
20260506093042 62 221 7.0 18.0 0.04 0.04 0.04 91 1011.2
20260506093036 62 200 7.0 18.0 0.05 0.05 0.05 91 1011.3
20260506093018 61 187 7.0 20.0 0.05 0.05 0.05 91 1011.2
20260506093000 62 183 7.0 20.0 0.05 0.05 0.05 91 1011.2
20260506092712 62 215 7.0 18.0 0.04 0.04 0.04 91 1011.2
20260506092447 62 206 7.0 18.0 0.04 0.04 0.04 91 1011.2
20260506092347 62 218 8.0 19.0 0.04 0.04 0.04 91 1011.2
20260506092246 62 224 8.0 25.0 0.04 0.04 0.04 91 1011.2
20260506092146 62 215 8.0 25.0 0.04 0.04 0.04 91 1011.2
20260506092041 62 207 8.0 25.0 0.04 0.04 0.04 91 1011.1
20260506091943 62 204 8.0 25.0 0.04 0.04 0.04 91 1011.1
20260506091841 62 207 9.0 27.0 0.04 0.04 0.04 91 1011.2
20260506091739 62 209 9.0 27.0 0.04 0.04 0.04 91 1011.2
20260506091640 62 192 9.0 28.0 0.04 0.04 0.04 91 1011.2
20260506091608 62 205 9.0 28.0 0.04 0.04 0.04 90 1011.0
20260506091555 62 193 9.0 28.0 0.04 0.04 0.04 91 1011.2
20260506091401 62 190 9.0 28.0 0.03 0.03 0.03 90 1011.3
20260506091351 62 192 9.0 28.0 0.04 0.04 0.04 90 1011.2
20260506091130 62 194 9.0 28.0 0.02 0.02 0.03 90 1011.2
20260506091025 62 282 8.0 28.0 0.02 0.02 0.02 90 1011.1
20260506090925 62 228 8.0 28.0 0.02 0.02 0.02 90 1011.1
20260506090824 62 236 8.0 28.0 0.02 0.02 0.02 89 1010.9
20260506090723 62 181 8.0 28.0 0.01 0.01 0.02 89 1010.8
20260506090624 62 208 8.0 22.0 0.01 0.01 0.01 89 1010.5
20260506090550 63 173 7.0 22.0 0.01 0.01 0.01 88 1010.8
20260506090539 62 196 8.0 22.0 0.01 0.01 0.01 89 1010.7
20260506090353 63 258 7.0 21.0 0.01 0.01 0.01 87 1011.0
20260506090341 63 197 7.0 21.0 0.01 0.01 0.01 88 1011.1
20260506090118 63 202 8.0 26.0 0.00 0.00 0.00 87 1010.9
20260506090009 63 212 8.0 26.0 0.00 0.00 0.00 86 1010.8
20260506085910 64 209 8.0 26.0 0.00 0.00 0.00 86 1010.9
20260506085810 64 167 8.0 26.0 0.00 0.00 0.00 85 1010.9
20260506085709 64 205 8.0 26.0 0.00 0.00 0.00 85 1010.8
20260506085607 64 194 8.0 26.0 0.00 0.00 0.00 84 1010.8
20260506085507 64 217 8.0 26.0 0.00 0.00 0.00 84 1010.6
20260506085409 64 217 9.0 26.0 0.00 0.00 0.00 84 1010.5
20260506085307 65 215 8.0 26.0 0.00 0.00 0.00 83 1010.6
20260506085208 65 185 9.0 26.0 0.00 0.00 0.00 83 1010.5
20260506085106 65 232 8.0 23.0 0.00 0.00 0.00 83 1010.1
20260506085007 65 204 8.0 23.0 0.00 0.00 0.00 82 1010.3
20260506084922 65 225 7.0 23.0 0.00 0.00 0.00 80 1010.1
20260506084917 65 225 7.0 23.0 0.00 0.00 0.00 80 1009.8
20260506084907 65 198 8.0 23.0 0.00 0.00 0.00 82 1010.1
20260506084900 65 177 7.0 23.0 0.00 0.00 0.00 80 1009.8
20260506084855 65 173 7.0 23.0 0.00 0.00 0.00 81 1009.6
20260506084835 65 204 8.0 23.0 0.00 0.00 0.00 82 1010.0
20260506084814 65 194 7.0 23.0 0.00 0.00 0.00 81 1010.0
20260506084535 65 226 7.0 23.0 0.00 0.00 0.00 80 1010.1
20260506084530 65 223 7.0 23.0 0.00 0.00 0.00 80 1010.0
20260506084515 65 200 7.0 23.0 0.00 0.00 0.00 81 1009.7
20260506084452 65 201 7.0 23.0 0.00 0.00 0.00 81 1009.7
20260506084336 65 194 8.0 23.0 0.00 0.00 0.00 80 1009.7
20260506084324 65 205 7.0 23.0 0.00 0.00 0.00 80 1009.8
20260506084302 65 43 7.0 19.0 0.00 0.00 0.00 80 1010.0
20260506084139 65 203 7.0 23.0 0.00 0.00 0.00 80 1010.0
20260506084117 65 250 7.0 23.0 0.00 0.00 0.00 80 1010.0
20260506083941 65 284 7.0 23.0 0.00 0.00 0.00 80 1010.1
20260506083157 65 206 7.0 23.0 0.00 0.00 0.00 80 1009.8
20260506083057 65 263 7.0 27.0 0.00 0.00 0.00 80 1010.0
20260506083004 65 213 7.0 27.0 0.00 0.00 0.00 80 1010.1
20260506082930 65 204 8.0 27.0 0.00 0.00 0.00 80 1010.0
20260506082919 65 199 8.0 27.0 0.00 0.00 0.00 80 1010.1
20260506082658 65 214 8.0 27.0 0.00 0.00 0.00 79 1009.7
20260506082550 65 173 8.0 27.0 0.00 0.00 0.00 79 1010.0
20260506082517 65 183 8.0 27.0 0.00 0.00 0.00 79 1010.1
20260506082503 65 186 8.0 27.0 0.00 0.00 0.00 79 1010.2
20260506082440 65 196 8.0 27.0 0.00 0.00 0.00 79 1010.2
20260506082316 65 229 9.0 27.0 0.00 0.00 0.00 79 1010.0
20260506082047 65 200 8.0 25.0 0.00 0.00 0.00 80 1010.0
20260506081945 65 202 7.0 25.0 0.00 0.00 0.00 80 1010.2
20260506081846 65 246 8.0 25.0 0.00 0.00 0.00 79 1010.2
20260506081745 65 216 7.0 25.0 0.00 0.00 0.00 79 1010.0
20260506081645 65 62 8.0 25.0 0.00 0.00 0.00 79 1010.0
20260506081537 65 217 7.0 25.0 0.00 0.00 0.00 79 1010.0
20260506081514 65 202 7.0 25.0 0.00 0.00 0.00 79 1010.1
20260506081501 65 147 7.0 25.0 0.00 0.00 0.00 79 1009.8
20260506081308 65 199 7.0 19.0 0.00 0.00 0.00 78 1010.1
20260506081258 65 198 7.0 25.0 0.00 0.00 0.00 78 1010.2
20260506081033 65 202 7.0 19.0 0.00 0.00 0.00 78 1010.1
20260506080931 65 204 7.0 19.0 0.00 0.00 0.00 78 1010.0
20260506080830 65 186 7.0 19.0 0.00 0.00 0.00 78 1010.2
20260506080729 65 227 7.0 19.0 0.00 0.00 0.00 78 1010.2
20260506080630 65 232 7.0 20.0 0.00 0.00 0.00 78 1010.2
20260506080525 65 220 7.0 25.0 0.00 0.00 0.00 78 1010.2
20260506080424 65 227 8.0 25.0 0.00 0.00 0.00 78 1010.3
20260506080358 65 190 8.0 25.0 0.00 0.00 0.00 78 1010.2
20260506080346 65 229 8.0 25.0 0.00 0.00 0.00 78 1010.2
20260506080220 65 196 8.0 25.0 0.00 0.00 0.00 78 1010.3
20260506080215 65 188 8.0 25.0 0.00 0.00 0.00 78 1010.2
20260506080154 65 170 8.0 25.0 0.00 0.00 0.00 78 1010.2
20260506073437 65 196 6.0 20.0 0.00 0.00 0.00 76 1009.7
20260506073337 65 212 7.0 20.0 0.00 0.00 0.00 76 1009.7
20260506073237 65 195 7.0 21.0 0.00 0.00 0.00 76 1009.6
20260506073138 65 178 7.0 21.0 0.00 0.00 0.00 76 1009.7
20260506073035 65 217 7.0 21.0 0.00 0.00 0.00 76 1009.7
20260506072945 65 225 7.0 23.0 0.00 0.00 0.00 76 1009.6
20260506072939 64 167 7.0 23.0 0.00 0.00 0.00 76 1009.6
20260506072928 65 187 7.0 21.0 0.00 0.00 0.00 76 1009.7
20260506072906 65 198 7.0 21.0 0.00 0.00 0.00 76 1009.7
20260506072743 65 232 7.0 21.0 0.00 0.00 0.00 76 1009.6
20260506072723 65 217 7.0 23.0 0.00 0.00 0.00 76 1009.6
20260506072556 65 190 7.0 23.0 0.00 0.00 0.00 76 1009.8
20260506072216 64 178 7.0 23.0 0.00 0.00 0.00 76 1009.6
20260506072115 65 205 7.0 23.0 0.00 0.00 0.00 76 1009.6
20260506072016 65 189 7.0 23.0 0.00 0.00 0.00 76 1009.5
20260506071912 64 176 7.0 23.0 0.00 0.00 0.00 76 1009.6
20260506071711 64 197 7.0 23.0 0.00 0.00 0.00 75 1009.6
20260506071622 65 186 7.0 20.0 0.00 0.00 0.00 75 1009.6
20260506071610 65 190 7.0 20.0 0.00 0.00 0.00 75 1009.6
20260506071602 65 199 7.0 20.0 0.00 0.00 0.00 75 1009.7
20260506071542 65 205 7.0 20.0 0.00 0.00 0.00 75 1009.7
20260506071200 65 240 7.0 20.0 0.00 0.00 0.00 75 1009.5
20260506071059 65 195 7.0 20.0 0.00 0.00 0.00 75 1009.5
20260506071001 65 156 7.0 20.0 0.00 0.00 0.00 75 1009.6
20260506070930 65 175 7.0 20.0 0.00 0.00 0.00 75 1009.5
20260506070920 65 330 7.0 20.0 0.00 0.00 0.00 75 1009.4
20260506070701 65 171 7.0 20.0 0.00 0.00 0.00 75 1009.5
20260506070558 65 189 7.0 20.0 0.00 0.00 0.00 75 1009.5
20260506070500 65 232 7.0 20.0 0.00 0.00 0.00 75 1009.4
20260506070400 65 148 7.0 20.0 0.00 0.00 0.00 75 1009.5
20260506070300 65 186 7.0 21.0 0.00 0.00 0.00 75 1009.5
20260506070158 65 198 7.0 21.0 0.00 0.00 0.00 75 1009.6
20260506070132 64 196 7.0 21.0 0.00 0.00 0.00 75 1009.8
20260506070122 65 317 7.0 21.0 0.00 0.00 0.00 75 1009.5
20260506062417 64 203 7.0 21.0 0.00 0.00 0.00 74 1010.2
20260506062406 64 217 7.0 21.0 0.00 0.00 0.00 74 1010.1
20260506062140 64 208 7.0 21.0 0.00 0.00 0.00 74 1010.2
20260506062040 64 142 7.0 21.0 0.00 0.00 0.00 74 1010.3
20260506062013 64 260 6.0 21.0 0.00 0.00 0.00 74 1010.3
20260506062002 64 196 7.0 21.0 0.00 0.00 0.00 74 1010.4
20260506061734 64 165 6.0 21.0 0.00 0.00 0.00 74 1010.4
20260506061632 64 221 6.0 16.0 0.00 0.00 0.00 74 1010.4
20260506061535 64 179 6.0 16.0 0.00 0.00 0.00 74 1010.5
20260506061432 64 215 6.0 17.0 0.00 0.00 0.00 74 1010.6
20260506061334 64 200 6.0 17.0 0.00 0.00 0.00 74 1010.6
20260506061225 64 168 6.0 17.0 0.00 0.00 0.00 74 1010.5
20260506061122 64 223 6.0 17.0 0.00 0.00 0.00 73 1010.6
20260506061023 64 205 7.0 17.0 0.00 0.00 0.00 73 1010.6
20260506060923 64 168 7.0 17.0 0.00 0.00 0.00 74 1010.6
20260506060855 64 175 7.0 18.0 0.00 0.00 0.00 73 1010.6
20260506060843 64 151 6.0 17.0 0.00 0.00 0.00 73 1010.6
20260506060648 64 182 7.0 20.0 0.00 0.00 0.00 73 1010.7
20260506060639 64 179 7.0 20.0 0.00 0.00 0.00 73 1010.6
20260506060418 64 186 7.0 20.0 0.00 0.00 0.00 73 1010.6
20260506060317 64 213 7.0 20.0 0.00 0.00 0.00 73 1010.6
20260506060212 64 194 7.0 20.0 0.00 0.00 0.00 73 1010.6
20260506060110 64 236 7.0 20.0 0.00 0.00 0.00 73 1010.5
20260506051410 64 198 6.0 18.0 0.00 0.00 0.00 73 1011.1
20260506051346 64 203 7.0 18.0 0.00 0.00 0.00 73 1011.0
20260506051334 64 169 7.0 18.0 0.00 0.00 0.00 73 1011.0
20260506051109 64 178 7.0 18.0 0.00 0.00 0.00 73 1010.9
20260506051040 64 211 6.0 18.0 0.00 0.00 0.00 73 1011.1
20260506051029 64 200 7.0 18.0 0.00 0.00 0.00 73 1011.0
20260506050807 64 190 7.0 18.0 0.00 0.00 0.00 74 1011.1
20260506050704 64 207 6.0 18.0 0.00 0.00 0.00 74 1011.1
20260506050636 64 192 6.0 18.0 0.00 0.00 0.00 74 1011.1
20260506050626 64 190 6.0 18.0 0.00 0.00 0.00 74 1011.0
20260506050404 64 215 6.0 18.0 0.00 0.00 0.00 74 1011.1
20260506050305 64 203 6.0 18.0 0.00 0.00 0.00 74 1011.1
20260506050202 64 143 6.0 18.0 0.00 0.00 0.00 74 1011.2
20260506045057 64 206 7.0 20.0 0.00 0.00 0.00 73 1011.2
20260506044957 64 214 7.0 20.0 0.00 0.00 0.00 73 1011.0
20260506044858 64 185 7.0 20.0 0.00 0.00 0.00 73 1011.0
20260506044756 64 196 7.0 20.0 0.00 0.00 0.00 73 1011.2
20260506044651 64 198 7.0 20.0 0.00 0.00 0.00 73 1011.1
20260506044550 64 239 7.0 20.0 0.00 0.00 0.00 73 1011.2
20260506044451 64 233 7.0 20.0 0.00 0.00 0.00 73 1011.2
20260506044350 64 190 7.0 20.0 0.00 0.00 0.00 73 1011.1
20260506044251 64 243 7.0 20.0 0.00 0.00 0.00 73 1011.1
20260506044147 64 205 7.0 20.0 0.00 0.00 0.00 73 1011.1
20260506044047 64 185 6.0 20.0 0.00 0.00 0.00 73 1011.0
20260506043948 64 163 6.0 20.0 0.00 0.00 0.00 73 1011.1
20260506043848 64 178 6.0 20.0 0.00 0.00 0.00 73 1011.1
20260506043747 64 132 6.0 20.0 0.00 0.00 0.00 73 1011.1
20260506043646 64 175 6.0 20.0 0.00 0.00 0.00 73 1011.1
20260506043547 64 216 6.0 20.0 0.00 0.00 0.00 73 1011.0
20260506043445 64 175 6.0 20.0 0.00 0.00 0.00 73 1011.0
20260506043419 63 194 6.0 20.0 0.00 0.00 0.00 74 1011.2
20260506043408 63 215 6.0 20.0 0.00 0.00 0.00 74 1011.0
20260506043147 64 186 6.0 20.0 0.00 0.00 0.00 74 1011.2
20260506043046 64 178 6.0 20.0 0.00 0.00 0.00 73 1011.3
20260506042940 64 166 6.0 20.0 0.00 0.00 0.00 73 1011.3
20260506042910 64 178 7.0 20.0 0.00 0.00 0.00 73 1011.5
20260506042900 64 197 6.0 20.0 0.00 0.00 0.00 73 1011.3
20260506042638 64 161 7.0 20.0 0.00 0.00 0.00 73 1011.4
20260506042539 64 198 7.0 18.0 0.00 0.00 0.00 73 1011.4
20260506042532 64 296 7.0 18.0 0.00 0.00 0.00 73 1011.4
20260506042527 64 207 7.0 18.0 0.00 0.00 0.00 73 1011.3
20260506042507 64 185 7.0 18.0 0.00 0.00 0.00 73 1011.3
20260506042125 64 207 7.0 18.0 0.00 0.00 0.00 73 1011.3
20260506042026 64 174 7.0 18.0 0.00 0.00 0.00 73 1011.3
20260506041927 64 189 6.0 16.0 0.00 0.00 0.00 73 1011.3
20260506041826 64 188 6.0 16.0 0.00 0.00 0.00 73 1011.3
20260506041726 64 178 6.0 16.0 0.00 0.00 0.00 73 1011.4
20260506041625 64 174 6.0 16.0 0.00 0.00 0.00 73 1011.5
20260506041525 64 184 6.0 16.0 0.00 0.00 0.00 73 1011.5
20260506041426 63 226 6.0 17.0 0.00 0.00 0.00 73 1011.4
20260506041327 63 194 6.0 17.0 0.00 0.00 0.00 73 1011.5
20260506041227 63 223 6.0 17.0 0.00 0.00 0.00 73 1011.4
20260506041127 63 212 6.0 17.0 0.00 0.00 0.00 73 1011.5
20260506041025 63 182 6.0 17.0 0.00 0.00 0.00 73 1011.4
20260506040926 63 138 6.0 17.0 0.00 0.00 0.00 73 1011.4
20260506040828 63 121 6.0 17.0 0.00 0.00 0.00 73 1011.4
20260506040720 63 168 6.0 18.0 0.00 0.00 0.00 73 1011.4
20260506040619 63 186 6.0 18.0 0.00 0.00 0.00 73 1011.4
20260506040521 63 211 6.0 18.0 0.00 0.00 0.00 73 1011.4
20260506040420 63 200 6.0 18.0 0.00 0.00 0.00 73 1011.5
20260506040320 64 209 6.0 18.0 0.00 0.00 0.00 73 1011.5
20260506040246 64 193 6.0 18.0 0.00 0.00 0.00 73 1011.4
20260506040236 64 202 6.0 18.0 0.00 0.00 0.00 73 1011.5
20260506040014 64 190 6.0 18.0 0.00 0.00 0.00 73 1011.5
20260506035915 63 188 6.0 18.0 0.00 0.00 0.00 73 1011.4
20260506035814 63 200 6.0 17.0 0.00 0.00 0.00 73 1011.4
20260506035749 63 175 6.0 20.0 0.00 0.00 0.00 73 1011.4
20260506035735 63 204 7.0 20.0 0.00 0.00 0.00 73 1011.4
20260506035510 63 250 6.0 20.0 0.00 0.00 0.00 73 1011.3
20260506035411 63 174 6.0 20.0 0.00 0.00 0.00 73 1011.3
20260506035310 63 189 6.0 20.0 0.00 0.00 0.00 73 1011.3
20260506035247 63 173 7.0 20.0 0.00 0.00 0.00 73 1011.3
20260506035235 63 221 7.0 20.0 0.00 0.00 0.00 73 1011.3
20260506035009 63 187 6.0 20.0 0.00 0.00 0.00 73 1011.3
20260506034944 63 175 6.0 20.0 0.00 0.00 0.00 73 1011.4
20260506034931 63 188 6.0 20.0 0.00 0.00 0.00 73 1011.4
20260506034742 63 174 6.0 18.0 0.00 0.00 0.00 73 1011.5
20260506034732 63 192 6.0 18.0 0.00 0.00 0.00 73 1011.4
20260506034508 63 169 6.0 18.0 0.00 0.00 0.00 73 1011.4
20260506034411 63 182 6.0 18.0 0.00 0.00 0.00 73 1011.4
20260506034309 63 210 6.0 27.0 0.00 0.00 0.00 73 1011.4
20260506034208 63 207 6.0 27.0 0.00 0.00 0.00 73 1011.4
20260506034107 63 165 6.0 27.0 0.00 0.00 0.00 73 1011.5
20260506034008 63 182 6.0 27.0 0.00 0.00 0.00 73 1011.5
20260506033909 63 223 6.0 27.0 0.00 0.00 0.00 73 1011.7
20260506033807 63 190 6.0 27.0 0.00 0.00 0.00 73 1011.5
20260506033709 63 209 6.0 27.0 0.00 0.00 0.00 73 1011.7
20260506033609 63 141 6.0 27.0 0.00 0.00 0.00 73 1011.7
20260506033508 63 222 6.0 27.0 0.00 0.00 0.00 73 1011.5
20260506033408 63 161 6.0 27.0 0.00 0.00 0.00 73 1011.7
20260506033307 63 224 6.0 20.0 0.00 0.00 0.00 73 1011.7
20260506033207 63 290 6.0 20.0 0.00 0.00 0.00 73 1011.5
20260506033109 63 195 6.0 20.0 0.00 0.00 0.00 73 1011.7
20260506033008 63 197 6.0 20.0 0.00 0.00 0.00 73 1011.5
20260506032907 63 168 6.0 20.0 0.00 0.00 0.00 73 1011.8
20260506032807 63 192 6.0 20.0 0.00 0.00 0.00 73 1011.7
20260506032708 63 130 7.0 20.0 0.00 0.00 0.00 73 1011.8
20260506032607 63 226 7.0 20.0 0.00 0.00 0.00 73 1011.8
20260506032534 63 226 6.0 20.0 0.00 0.00 0.00 73 1011.8
20260506032524 63 194 6.0 20.0 0.00 0.00 0.00 73 1011.8
20260506032306 63 164 7.0 20.0 0.00 0.00 0.00 73 1011.7
20260506032203 63 210 7.0 20.0 0.00 0.00 0.00 73 1011.5
20260506032103 63 179 6.0 20.0 0.00 0.00 0.00 73 1011.5
20260506032003 63 242 7.0 20.0 0.00 0.00 0.00 73 1011.5
20260506031906 63 128 7.0 20.0 0.00 0.00 0.00 73 1011.7
20260506031805 63 190 7.0 20.0 0.00 0.00 0.00 73 1011.5
20260506031717 63 177 7.0 20.0 0.00 0.00 0.00 73 1011.5
20260506031704 63 196 7.0 20.0 0.00 0.00 0.00 73 1011.5
20260506031641 63 173 7.0 20.0 0.00 0.00 0.00 73 1011.5
20260506031400 63 193 7.0 20.0 0.00 0.00 0.00 73 1011.5
20260506031259 63 204 6.0 19.0 0.00 0.00 0.00 73 1011.7
20260506031159 63 189 6.0 19.0 0.00 0.00 0.00 73 1011.8
20260506031102 63 188 7.0 21.0 0.00 0.00 0.00 73 1011.7
20260506031001 63 190 7.0 21.0 0.00 0.00 0.00 74 1011.7
20260506030901 63 222 6.0 21.0 0.00 0.00 0.00 74 1011.5
20260506030802 63 177 6.0 21.0 0.00 0.00 0.00 74 1011.5
20260506030659 63 182 7.0 21.0 0.00 0.00 0.00 73 1011.4
20260506030559 63 179 7.0 21.0 0.00 0.00 0.00 74 1011.5
20260506030500 63 248 6.0 21.0 0.00 0.00 0.00 73 1011.3
20260506030435 63 169 7.0 21.0 0.00 0.00 0.00 73 1011.5
20260506030424 63 187 6.0 21.0 0.00 0.00 0.00 73 1011.3
20260506030159 63 188 7.0 21.0 0.00 0.00 0.00 73 1011.4
20260506030131 63 211 6.0 18.0 0.00 0.00 0.00 73 1011.5
20260506030120 63 189 6.0 18.0 0.00 0.00 0.00 74 1011.4
20260506025900 63 212 6.0 18.0 0.00 0.00 0.00 73 1011.4
20260506025759 63 199 6.0 21.0 0.00 0.00 0.00 73 1011.4
20260506025700 63 242 6.0 21.0 0.00 0.00 0.00 73 1011.4
20260506025601 63 159 7.0 21.0 0.00 0.00 0.00 73 1011.4
20260506025459 63 185 7.0 21.0 0.00 0.00 0.00 73 1011.3
20260506025359 63 212 7.0 21.0 0.00 0.00 0.00 73 1011.3
20260506025300 63 165 7.0 21.0 0.00 0.00 0.00 73 1011.5
20260506025221 63 173 7.0 21.0 0.00 0.00 0.00 73 1011.5
20260506025206 63 219 7.0 21.0 0.00 0.00 0.00 73 1011.3
20260506025141 63 166 7.0 21.0 0.00 0.00 0.00 73 1011.5
20260506024959 63 173 7.0 21.0 0.00 0.00 0.00 73 1011.5
20260506024901 63 161 7.0 21.0 0.00 0.00 0.00 73 1011.5
20260506024759 63 148 7.0 20.0 0.00 0.00 0.00 73 1011.5
20260506024659 63 177 6.0 20.0 0.00 0.00 0.00 73 1011.7
20260506024559 63 213 6.0 20.0 0.00 0.00 0.00 72 1011.7
20260506024459 63 144 6.0 20.0 0.00 0.00 0.00 72 1011.8
20260506024356 63 169 6.0 20.0 0.00 0.00 0.00 72 1011.8
20260506024255 63 183 6.0 20.0 0.00 0.00 0.00 72 1011.8
20260506024154 63 121 6.0 20.0 0.00 0.00 0.00 72 1011.8
20260506024134 63 171 6.0 20.0 0.00 0.00 0.00 72 1011.7
20260506024120 63 128 6.0 20.0 0.00 0.00 0.00 72 1011.8
20260506023919 63 198 6.0 23.0 0.00 0.00 0.00 72 1011.7
20260506023908 63 197 6.0 20.0 0.00 0.00 0.00 72 1011.7
20260506023649 63 254 6.0 23.0 0.00 0.00 0.00 72 1011.5
20260506023548 63 178 6.0 23.0 0.00 0.00 0.00 72 1011.7
20260506023449 63 184 6.0 23.0 0.00 0.00 0.00 71 1011.7
20260506023420 63 182 6.0 23.0 0.00 0.00 0.00 71 1011.8
20260506023408 63 182 6.0 23.0 0.00 0.00 0.00 71 1011.9
20260506023145 63 186 6.0 23.0 0.00 0.00 0.00 71 1011.8
20260506023045 63 197 6.0 23.0 0.00 0.00 0.00 71 1011.5
20260506022959 63 244 6.0 17.0 0.00 0.00 0.00 71 1011.7
20260506022947 63 181 6.0 23.0 0.00 0.00 0.00 71 1011.5
20260506022941 63 188 6.0 17.0 0.00 0.00 0.00 70 1011.7
20260506022921 63 224 6.0 17.0 0.00 0.00 0.00 71 1011.8
20260506022613 63 167 6.0 20.0 0.00 0.00 0.00 70 1011.8
20260506022603 63 198 6.0 15.0 0.00 0.00 0.00 71 1011.8
20260506022343 63 185 6.0 20.0 0.00 0.00 0.00 70 1011.7
20260506022313 63 200 7.0 20.0 0.00 0.00 0.00 70 1011.8
20260506022301 63 186 7.0 20.0 0.00 0.00 0.00 71 1011.8
20260506022034 63 192 7.0 20.0 0.00 0.00 0.00 70 1011.7
20260506022011 63 212 7.0 22.0 0.00 0.00 0.00 70 1011.5
20260506022006 63 167 7.0 22.0 0.00 0.00 0.00 70 1011.7
20260506021952 63 186 7.0 22.0 0.00 0.00 0.00 70 1011.8
20260506021934 63 179 7.0 22.0 0.00 0.00 0.00 70 1011.7
20260506021649 63 192 7.0 22.0 0.00 0.00 0.00 70 1011.7
20260506021429 63 259 7.0 22.0 0.00 0.00 0.00 70 1011.7
20260506021359 63 227 7.0 22.0 0.00 0.00 0.00 70 1011.5
20260506021348 63 199 7.0 22.0 0.00 0.00 0.00 70 1011.5
20260506021125 63 206 7.0 22.0 0.00 0.00 0.00 70 1011.5
20260506021022 63 201 6.0 21.0 0.00 0.00 0.00 70 1011.4
20260506020922 63 290 6.0 14.0 0.00 0.00 0.00 70 1011.4
20260506020822 63 224 6.0 14.0 0.00 0.00 0.00 70 1011.4
20260506020723 63 213 6.0 14.0 0.00 0.00 0.00 70 1011.4
20260506020614 63 186 6.0 14.0 0.00 0.00 0.00 70 1011.4
20260506020511 63 182 6.0 15.0 0.00 0.00 0.00 70 1011.4
20260506020411 63 196 6.0 15.0 0.00 0.00 0.00 70 1011.5
20260506020312 63 220 6.0 15.0 0.00 0.00 0.00 70 1011.5
20260506020211 63 206 6.0 15.0 0.00 0.00 0.00 70 1011.4
20260506020107 63 183 6.0 17.0 0.00 0.00 0.00 69 1011.4
20260506020037 63 201 6.0 17.0 0.00 0.00 0.00 69 1011.5
20260506020028 63 148 6.0 17.0 0.00 0.00 0.00 69 1011.4
20260506015806 63 192 6.0 17.0 0.00 0.00 0.00 69 1011.7
20260506015706 63 166 6.0 17.0 0.00 0.00 0.00 69 1011.7
20260506015617 63 181 6.0 17.0 0.00 0.00 0.00 69 1011.7
20260506015612 63 185 6.0 17.0 0.00 0.00 0.00 69 1011.8
20260506015601 63 137 6.0 17.0 0.00 0.00 0.00 69 1011.7
20260506015539 63 188 6.0 17.0 0.00 0.00 0.00 69 1011.7
20260506015200 63 169 6.0 17.0 0.00 0.00 0.00 69 1011.9
20260506015046 63 170 6.0 17.0 0.00 0.00 0.00 69 1011.9
20260506014945 63 205 6.0 17.0 0.00 0.00 0.00 69 1011.9
20260506014847 63 161 5.0 17.0 0.00 0.00 0.00 69 1011.9
20260506014745 63 201 6.0 17.0 0.00 0.00 0.00 69 1012.0
20260506014718 63 176 6.0 20.0 0.00 0.00 0.00 69 1012.0
20260506014609 63 181 5.0 20.0 0.00 0.00 0.00 69 1012.1
20260506014559 63 196 6.0 20.0 0.00 0.00 0.00 69 1012.0
20260506014338 63 217 5.0 20.0 0.00 0.00 0.00 69 1012.0
20260506014311 63 201 5.0 20.0 0.00 0.00 0.00 69 1012.1
20260506014259 64 173 5.0 20.0 0.00 0.00 0.00 69 1012.1
20260506014104 64 194 5.0 20.0 0.00 0.00 0.00 68 1012.0
20260506014054 63 209 5.0 20.0 0.00 0.00 0.00 69 1012.0
20260506013831 64 208 6.0 20.0 0.00 0.00 0.00 68 1012.0
20260506013733 63 166 5.0 15.0 0.00 0.00 0.00 68 1012.0
20260506013632 64 183 5.0 15.0 0.00 0.00 0.00 68 1012.0
20260506013523 64 215 5.0 12.0 0.00 0.00 0.00 68 1012.0
20260506013421 64 200 5.0 12.0 0.00 0.00 0.00 68 1011.9
20260506013320 64 287 5.0 16.0 0.00 0.00 0.00 68 1011.9
20260506013254 64 201 6.0 16.0 0.00 0.00 0.00 68 1011.8
20260506013244 64 178 6.0 16.0 0.00 0.00 0.00 68 1011.8
20260506013055 64 192 6.0 19.0 0.00 0.00 0.00 68 1011.8
20260506013043 64 174 6.0 16.0 0.00 0.00 0.00 68 1011.8
20260506012816 64 103 6.0 19.0 0.00 0.00 0.00 68 1011.7
20260506012718 64 198 6.0 19.0 0.00 0.00 0.00 68 1011.8
20260506012616 64 250 6.0 19.0 0.00 0.00 0.00 68 1011.8
20260506012540 64 216 6.0 19.0 0.00 0.00 0.00 67 1011.5
20260506012534 64 190 6.0 12.0 0.00 0.00 0.00 67 1011.4
20260506012520 64 218 6.0 19.0 0.00 0.00 0.00 68 1011.7
20260506012457 64 190 7.0 19.0 0.00 0.00 0.00 67 1011.7
20260506012328 64 195 6.0 19.0 0.00 0.00 0.00 67 1011.7
20260506012308 64 169 6.0 19.0 0.00 0.00 0.00 67 1011.5
20260506012018 64 207 6.0 12.0 0.00 0.00 0.00 67 1011.5
20260506011757 64 239 6.0 12.0 0.00 0.00 0.00 67 1011.5
20260506011657 64 175 6.0 16.0 0.00 0.00 0.00 67 1011.5
20260506011555 64 200 6.0 23.0 0.00 0.00 0.00 67 1011.5
20260506011448 64 194 6.0 23.0 0.00 0.00 0.00 67 1011.7
20260506011348 64 184 7.0 23.0 0.00 0.00 0.00 67 1011.5
20260506011322 64 181 7.0 23.0 0.00 0.00 0.00 67 1011.5
20260506011310 64 189 7.0 23.0 0.00 0.00 0.00 67 1011.5
20260506011048 64 142 7.0 23.0 0.00 0.00 0.00 67 1011.7
20260506010944 64 180 7.0 23.0 0.00 0.00 0.00 67 1011.5
20260506010840 64 220 7.0 23.0 0.00 0.00 0.00 67 1011.5
20260506010746 64 201 7.0 23.0 0.00 0.00 0.00 67 1011.5
20260506010717 64 250 7.0 21.0 0.00 0.00 0.00 67 1011.5
20260506010706 64 178 7.0 23.0 0.00 0.00 0.00 67 1011.5
20260506010431 64 214 7.0 21.0 0.00 0.00 0.00 67 1011.5
20260506010331 64 221 7.0 22.0 0.00 0.00 0.00 67 1011.3
20260506010232 64 192 7.0 22.0 0.00 0.00 0.00 67 1011.4
20260506010137 64 192 7.0 22.0 0.00 0.00 0.00 67 1011.3
20260506010029 64 194 7.0 22.0 0.00 0.00 0.00 66 1011.4
20260506005957 64 177 7.0 22.0 0.00 0.00 0.00 66 1011.4
20260506005945 64 168 7.0 22.0 0.00 0.00 0.00 66 1011.4
20260506005723 64 196 7.0 22.0 0.00 0.00 0.00 66 1011.3
20260506005622 64 186 7.0 22.0 0.00 0.00 0.00 66 1011.3
20260506005522 64 173 7.0 22.0 0.00 0.00 0.00 66 1011.3
20260506005415 64 236 6.0 22.0 0.00 0.00 0.00 66 1011.3
20260506005315 64 183 6.0 20.0 0.00 0.00 0.00 66 1011.3
20260506005216 64 212 6.0 20.0 0.00 0.00 0.00 66 1011.3
20260506005116 64 184 6.0 20.0 0.00 0.00 0.00 66 1011.3
20260506005016 64 167 6.0 20.0 0.00 0.00 0.00 66 1011.2
20260506004902 64 162 6.0 20.0 0.00 0.00 0.00 66 1011.2
20260506004803 64 192 6.0 20.0 0.00 0.00 0.00 66 1011.1
20260506004704 64 192 6.0 20.0 0.00 0.00 0.00 66 1011.2
20260506004601 64 192 6.0 20.0 0.00 0.00 0.00 66 1011.2
20260506004534 64 185 6.0 20.0 0.00 0.00 0.00 66 1011.2
20260506004522 64 173 6.0 20.0 0.00 0.00 0.00 66 1011.3
20260506004255 64 132 6.0 20.0 0.00 0.00 0.00 66 1011.3
20260506004155 64 200 6.0 20.0 0.00 0.00 0.00 66 1011.3
20260506004056 64 198 6.0 20.0 0.00 0.00 0.00 66 1011.3
20260506003955 64 190 6.0 20.0 0.00 0.00 0.00 65 1011.2
20260506003925 64 185 6.0 19.0 0.00 0.00 0.00 65 1011.3
20260506003913 64 148 6.0 19.0 0.00 0.00 0.00 65 1011.3
20260506003650 64 180 7.0 19.0 0.00 0.00 0.00 65 1011.3
20260506003553 64 184 6.0 19.0 0.00 0.00 0.00 65 1011.3
20260506003450 64 240 6.0 19.0 0.00 0.00 0.00 65 1011.3
20260506003343 64 187 6.0 19.0 0.00 0.00 0.00 65 1011.3
20260506003241 64 159 6.0 19.0 0.00 0.00 0.00 65 1011.3
20260506003141 64 202 6.0 19.0 0.00 0.00 0.00 65 1011.4
20260506003057 64 196 5.0 17.0 0.00 0.00 0.00 65 1011.4
20260506002939 64 188 5.0 18.0 0.00 0.00 0.00 65 1011.3
20260506002833 64 190 5.0 18.0 0.00 0.00 0.00 65 1011.4
20260506002735 64 169 5.0 18.0 0.00 0.00 0.00 65 1011.3
20260506002634 64 157 5.0 18.0 0.00 0.00 0.00 65 1011.3
20260506002533 64 220 5.0 18.0 0.00 0.00 0.00 65 1011.2
20260506002458 64 174 5.0 18.0 0.00 0.00 0.00 65 1011.3
20260506002449 64 188 5.0 18.0 0.00 0.00 0.00 65 1011.3
20260506002227 64 195 5.0 18.0 0.00 0.00 0.00 65 1011.3
20260506002127 64 210 5.0 18.0 0.00 0.00 0.00 65 1011.3
20260506002026 64 250 5.0 18.0 0.00 0.00 0.00 64 1011.3
20260506001928 64 175 5.0 18.0 0.00 0.00 0.00 64 1011.3
20260506001852 64 164 5.0 17.0 0.00 0.00 0.00 64 1011.3
20260506001839 64 200 5.0 17.0 0.00 0.00 0.00 64 1011.3
20260506001619 64 184 5.0 17.0 0.00 0.00 0.00 64 1011.3
20260506001516 64 173 5.0 17.0 0.00 0.00 0.00 64 1011.3
20260506001415 64 203 5.0 15.0 0.00 0.00 0.00 64 1011.3
20260506001315 64 190 5.0 15.0 0.00 0.00 0.00 64 1011.3
20260506001215 64 202 5.0 15.0 0.00 0.00 0.00 64 1011.3
20260506001114 64 200 5.0 15.0 0.00 0.00 0.00 64 1011.3
20260506001016 64 170 4.0 15.0 0.00 0.00 0.00 64 1011.4
20260506000915 64 207 4.0 15.0 0.00 0.00 0.00 64 1011.3
20260506000815 64 178 4.0 15.0 0.00 0.00 0.00 64 1011.4
20260506000806 64 194 5.0 13.0 0.00 0.00 0.00 64 1011.4
20260506000748 64 222 4.0 13.0 0.00 0.00 0.00 64 1011.4
20260506000620 64 197 4.0 13.0 0.00 0.00 0.00 64 1011.3
20260506000559 64 211 4.0 11.0 0.00 0.00 0.00 64 1011.3
20260506000438 64 175 4.0 12.0 0.00 0.00 0.00 65 1011.4
20260506000215 64 194 5.0 13.0 0.00 0.00 0.00 64 1011.4
20260506000112 64 156 5.0 13.0 0.00 0.00 0.00 64 1011.4
20260506000011 64 173 5.0 13.0 0.00 0.00 0.00 64 1011.4
20260505235911 64 196 5.0 16.0 0.00 0.00 0.00 64 1011.4
20260505235812 64 190 5.0 16.0 0.00 0.00 0.00 64 1011.4
20260505235710 64 155 5.0 16.0 0.00 0.00 0.00 64 1011.4
20260505235613 64 217 5.0 16.0 0.00 0.00 0.00 64 1011.4
20260505235545 64 201 5.0 16.0 0.00 0.00 0.00 64 1011.5
20260505235535 64 211 5.0 16.0 0.00 0.00 0.00 64 1011.4